GFSWCAN_prec_cthk_093.txt.gz
RH
50 49 54 49 43 37 35 35 31 30 31 36 31 22 29 47 64 78 91 88 88 74 68 64 62 50 50 56 67 69 70 73 80 79 78 81 77 74 71 69 69 66 69 72 65 66 62 62 62 66 72 69 58 52
49 45 50 48 45 39 34 36 31 33 43 35 32 23 29 50 68 85 96 90 84 78 74 69 64 56 51 46 53 58 64 71 76 78 76 79 78 76 72 69 71 76 80 77 76 79 76 77 81 77 73 66 66 63
45 48 49 50 46 38 38 34 32 33 43 33 28 25 44 55 75 88 95 94 88 84 76 73 61 59 59 52 52 54 53 58 66 72 77 77 78 78 78 72 70 70 76 78 80 83 91 94 90 81 75 80 86 76
46 46 49 51 47 39 39 37 33 44 37 29 25 42 57 67 81 91 92 93 88 83 78 70 63 62 62 64 66 61 59 58 63 61 75 74 76 75 76 72 74 75 79 88 92 89 94 96 95 91 88 88 83 81
45 51 48 45 42 41 41 38 35 44 35 26 46 58 66 78 89 93 94 92 91 91 88 78 72 73 75 73 70 64 56 56 61 63 76 78 74 78 81 80 79 85 90 92 96 93 92 94 94 92 93 95 95 93
51 54 50 45 47 43 39 46 51 42 30 44 60 67 75 87 97 96 95 91 94 98 98 90 85 79 81 80 74 72 58 59 62 74 89 88 81 81 83 83 86 93 95 98 98 97 97 96 95 95 97 96 96 92
62 57 55 52 48 43 46 53 47 36 46 60 71 77 86 94 97 95 93 94 94 97 97 94 85 84 85 86 78 74 65 63 70 87 90 91 84 88 88 82 85 92 98 97 97 97 95 94 95 93 92 88 86 86
49 49 54 52 49 41 43 52 40 42 64 75 83 93 98 98 98 97 99 95 92 96 94 90 86 90 89 82 79 73 69 74 84 90 90 92 91 89 88 85 84 88 91 93 94 93 92 88 84 80 79 79 78 81
53 59 54 50 43 43 49 46 38 62 81 90 96 99 99 98 99 98 99 97 93 91 86 86 90 93 91 92 85 85 81 81 85 85 88 88 89 85 84 81 82 87 85 86 89 88 87 84 81 77 75 74 74 76
52 58 55 49 46 60 52 41 51 81 93 98 99 98 98 99 97 97 99 93 91 89 84 88 88 91 92 95 92 87 82 78 84 76 76 73 71 78 80 79 74 71 75 77 84 84 81 80 79 80 78 77 77 77
51 50 47 46 52 55 44 42 77 92 98 98 98 98 95 97 98 98 95 91 87 83 76 80 83 83 86 93 93 81 82 71 71 67 69 73 69 73 77 78 82 84 82 81 79 78 77 80 82 81 77 75 75 76
52 49 50 54 53 47 40 58 94 97 98 97 97 98 97 99 96 91 86 83 77 76 73 74 78 82 85 93 95 92 83 86 76 77 77 73 67 79 87 93 91 86 82 82 82 83 83 80 77 74 74 75 75 75
54 56 57 55 48 43 49 89 98 98 99 99 99 98 96 96 93 81 76 70 69 70 69 76 79 81 87 93 97 92 86 84 89 84 75 77 82 86 89 88 87 85 82 79 78 77 78 79 77 71 66 64 67 69
59 54 48 49 55 63 80 97 98 99 99 98 98 97 86 83 71 63 56 54 57 64 70 78 80 86 89 95 98 91 88 89 87 85 82 84 88 89 89 86 83 80 79 79 77 71 64 60 57 59 62 63 62 59
81 91 95 96 95 96 98 98 99 98 99 98 98 92 77 66 62 59 58 58 63 66 73 79 80 88 91 96 95 93 93 90 89 87 85 86 88 85 80 78 77 74 70 64 64 62 59 56 56 54 55 57 58 61
98 99 99 98 98 98 99 99 98 99 98 97 95 83 72 72 62 62 65 64 66 68 75 78 82 87 89 89 88 87 88 85 85 85 88 88 86 83 80 74 70 64 56 54 51 51 52 55 58 60 62 64 66 67
97 92 86 88 93 98 99 99 99 98 97 88 83 83 80 72 76 69 65 69 77 78 79 81 78 81 82 80 80 83 83 82 83 85 86 83 81 77 72 64 55 50 50 52 55 58 61 62 63 63 62 61 60 59
96 89 86 88 93 94 96 93 95 90 97 89 84 85 86 84 81 76 73 78 80 80 78 81 77 77 76 77 77 80 83 85 86 83 81 83 77 63 49 47 50 54 56 58 59 60 59 59 58 56 56 56 55 55
92 90 89 91 95 94 97 97 85 84 88 91 92 91 86 82 77 78 82 83 80 82 83 77 72 73 76 77 78 81 82 80 81 84 73 52 46 48 51 53 55 56 56 56 56 55 53 51 49 48 46 45 44 43
93 93 93 94 91 91 93 94 92 88 90 90 92 89 86 86 87 84 81 84 84 83 82 80 79 80 80 80 78 75 79 78 60 45 45 49 52 53 54 54 54 53 53 51 50 48 45 42 39 38 37 35 33 34
98 96 95 95 97 94 88 86 88 92 94 95 96 90 89 88 86 84 83 84 82 83 83 81 83 83 79 75 79 78 62 41 42 45 48 50 51 51 51 51 51 49 48 47 44 40 38 36 34 33 33 32 32 32
92 91 92 94 91 90 92 86 86 85 87 91 92 92 90 86 85 84 85 85 86 84 84 84 82 79 82 81 65 43 43 47 47 47 49 49 50 50 50 48 46 45 43 38 35 34 34 33 33 32 31 31 33 34
91 96 95 95 93 92 95 92 88 86 86 90 92 89 88 87 84 84 88 86 86 85 83 81 84 83 71 51 45 47 49 48 47 47 47 47 46 45 44 41 39 35 31 29 30 32 32 31 31 32 33 35 36 36
96 91 90 92 93 93 91 88 87 87 90 88 84 85 86 86 84 83 84 84 82 83 87 85 74 61 53 50 49 47 46 45 44 43 46 47 44 42 37 36 33 29 29 30 30 31 32 33 35 37 38 37 37 38
91 89 87 92 90 84 78 78 76 77 82 84 83 83 80 78 79 76 74 80 88 86 77 68 61 55 49 46 45 43 41 40 40 41 45 45 41 39 38 34 30 30 31 32 32 34 36 37 38 38 39 40 39 38
89 89 89 89 88 80 79 76 74 77 76 77 78 78 76 75 75 79 79 78 74 69 64 59 51 43 42 40 37 37 38 38 39 43 44 42 39 36 31 28 28 29 29 29 31 33 34 34 33 34 36 38 38 39
87 89 88 90 86 79 78 76 74 71 72 76 78 80 81 84 75 58 58 61 62 59 53 46 41 39 37 37 38 39 40 41 43 46 43 38 35 33 28 26 25 25 25 27 30 31 32 31 31 32 33 33 35 36
85 86 86 85 81 77 77 76 75 75 76 80 82 81 71 54 46 50 53 52 48 46 43 39 37 37 37 39 40 41 42 42 43 44 39 38 34 28 27 26 24 23 25 27 29 29 29 30 31 32 33 34 35 37
79 81 79 82 78 77 77 77 76 78 76 75 69 65 58 44 45 50 48 45 45 43 39 37 38 40 41 42 43 41 40 41 43 41 39 36 29 27 25 24 24 24 25 26 27 29 30 32 33 35 37 40 43 46
77 75 77 78 80 81 81 79 75 73 70 68 62 56 46 45 49 51 47 46 43 41 40 41 42 43 45 43 40 39 41 44 42 39 36 30 26 24 24 24 23 23 24 26 28 30 33 37 41 44 46 47 49 50
68 68 70 74 79 80 79 75 69 67 64 60 53 44 45 48 50 51 50 47 44 43 43 45 46 45 43 41 40 42 46 45 42 38 32 27 25 23 23 22 23 25 27 31 35 39 41 42 44 45 47 49 52 55
62 63 65 69 76 77 75 71 66 62 58 54 51 48 48 48 48 47 46 45 46 49 49 50 50 47 44 42 45 47 48 45 41 34 29 26 23 22 23 24 26 31 36 39 40 41 42 44 46 48 49 52 55 59
63 62 63 66 74 74 74 71 67 59 51 50 50 50 47 44 45 44 44 46 49 51 52 50 47 46 46 49 51 51 48 42 35 30 26 23 23 24 26 31 34 37 38 39 41 42 44 46 47 50 55 62 67 71

GFSWCAN_prec_cthk_096.txt.gz
RH
69 69 65 56 44 44 39 35 31 31 31 34 36 31 20 30 36 54 66 75 79 82 74 61 58 55 50 51 55 67 71 71 79 76 70 72 75 70 69 69 70 67 66 64 63 63 63 73 63 64 72 73 70 65
62 59 57 57 58 56 49 39 33 32 30 32 36 34 25 27 35 60 70 82 88 86 73 63 60 56 56 54 52 57 65 68 72 77 74 76 79 74 70 80 66 76 74 76 72 75 77 79 79 78 76 69 69 71
58 56 52 50 58 54 49 40 32 33 31 36 39 34 27 22 40 64 76 86 91 85 70 66 65 57 56 56 55 55 55 56 66 71 78 75 78 74 76 71 70 73 75 78 77 76 80 85 84 79 74 79 84 84
58 54 47 46 47 49 44 38 32 33 34 42 39 31 23 29 49 72 81 86 90 84 77 70 63 58 59 59 62 62 61 60 60 64 71 74 74 71 77 73 71 70 69 76 80 81 85 89 89 87 87 86 83 82
57 52 49 51 52 50 46 39 34 35 38 44 36 26 31 47 60 78 83 88 87 81 83 76 68 64 63 64 68 71 65 61 60 59 65 70 69 74 77 75 73 75 80 83 83 90 89 91 93 94 91 88 87 88
61 57 47 50 47 48 44 39 38 37 39 40 30 37 51 65 75 85 88 85 85 85 91 88 76 75 74 76 78 76 75 62 59 58 68 80 77 77 75 77 82 88 91 94 97 97 95 94 96 96 96 91 87 88
59 56 49 51 49 45 46 40 38 42 49 37 45 57 66 75 85 91 92 92 90 95 95 90 85 84 82 83 83 82 78 67 65 64 72 77 80 78 80 78 85 93 94 96 97 97 97 98 97 97 94 91 86 82
65 66 61 56 48 49 44 43 45 54 42 45 57 70 78 87 94 96 94 97 96 98 95 93 87 85 87 86 82 79 75 67 70 79 82 82 87 87 89 86 85 85 93 95 93 94 94 93 90 88 85 79 76 73
65 65 63 59 52 48 45 41 51 46 47 61 76 86 93 94 98 95 96 97 97 98 93 85 84 89 93 88 84 82 78 75 77 83 81 86 87 87 85 83 78 79 80 81 85 87 88 89 87 83 79 76 75 74
65 58 52 48 50 47 44 44 48 46 64 82 92 95 97 98 98 98 98 95 98 94 87 80 83 91 92 92 91 85 81 81 79 76 82 85 81 77 79 80 79 77 74 68 71 79 81 83 81 79 76 75 75 74
61 53 53 56 51 45 44 53 49 61 87 95 98 99 97 97 98 98 96 94 91 86 78 76 84 88 87 91 90 80 81 76 73 73 73 71 71 67 69 76 77 81 84 83 80 78 78 80 79 78 77 75 75 75
62 51 51 55 51 50 58 58 50 82 94 98 99 94 98 98 98 95 91 87 81 77 73 71 78 82 85 85 92 86 82 83 76 77 74 70 73 74 76 83 89 92 89 86 83 82 82 81 79 77 77 76 75 72
61 55 50 49 48 53 60 53 69 95 99 99 99 99 96 94 91 84 79 74 71 68 67 70 76 81 81 85 93 91 90 85 84 82 76 77 76 79 86 89 90 90 88 85 83 81 80 79 77 73 69 63 59 56
58 51 54 54 58 56 52 55 93 98 99 98 98 98 94 85 72 68 65 61 59 61 67 72 78 77 80 87 95 94 88 84 84 84 82 83 88 91 91 89 83 80 79 78 76 71 65 61 59 57 57 58 59 59
51 52 57 57 61 60 51 79 98 98 98 98 96 93 81 73 68 65 61 59 60 62 70 78 79 81 83 92 91 93 95 91 87 88 89 88 89 90 86 82 80 76 68 64 62 58 55 53 52 52 53 55 57 58
60 62 57 55 61 62 70 97 98 98 98 95 84 80 71 68 63 61 60 61 62 66 74 76 78 80 85 84 87 88 88 85 89 88 88 87 88 84 81 77 71 65 56 49 48 51 53 56 57 57 58 58 58 55
63 51 48 49 52 61 94 98 98 98 93 89 78 71 68 66 66 63 63 65 65 72 73 76 79 79 80 80 82 82 85 86 85 87 88 85 81 79 79 63 46 46 50 53 54 55 54 54 54 54 55 52 51 50
96 97 97 94 94 99 98 98 98 93 86 79 75 73 70 69 71 68 69 70 69 72 72 76 75 77 77 79 78 81 81 83 86 86 83 84 78 51 44 47 50 51 52 52 52 52 51 50 50 50 48 47 46 45
97 97 99 99 98 96 98 98 97 88 83 84 80 80 78 77 77 78 78 75 72 72 74 75 76 74 76 74 72 77 80 82 82 83 71 47 44 48 50 50 51 52 53 52 51 51 50 48 46 44 41 39 40 40
95 96 97 98 98 96 97 97 94 90 87 84 82 82 85 85 87 85 85 80 78 79 80 81 78 74 73 74 78 81 80 78 69 47 46 50 52 52 54 55 54 52 51 49 49 47 44 41 37 36 36 37 38 41
96 94 96 93 84 82 88 90 90 91 85 83 89 92 91 90 87 83 81 83 80 79 80 78 79 78 79 80 82 78 77 46 44 48 50 51 51 53 52 51 50 49 48 47 45 40 37 38 36 36 36 35 32 34
89 90 91 92 91 89 96 93 89 86 83 88 95 90 89 88 86 85 85 81 81 83 79 79 81 82 82 80 82 59 40 44 44 44 44 45 48 50 50 48 47 45 43 39 36 36 35 34 34 33 34 35 34 38
92 90 92 97 94 92 93 91 90 88 91 92 95 93 90 85 82 83 82 81 80 80 81 82 83 82 83 76 52 43 44 43 44 43 42 43 43 47 47 44 42 40 36 33 31 33 33 31 31 32 35 38 41 42
98 96 97 98 95 94 92 87 84 84 87 87 88 89 86 83 81 80 79 81 81 83 83 83 86 86 69 57 48 44 41 42 41 39 39 41 44 43 40 37 35 31 29 30 30 31 31 33 35 39 40 41 41 42
91 91 92 96 94 92 90 90 88 84 82 83 86 84 81 82 82 81 80 81 80 79 84 85 75 65 59 46 42 41 41 41 40 39 39 40 43 41 38 37 32 30 29 31 32 33 34 34 36 38 40 40 40 41
89 90 91 91 84 81 81 83 82 82 82 82 81 81 82 82 81 76 71 74 82 82 75 71 68 56 45 43 41 42 40 38 37 39 41 43 43 42 42 39 36 33 28 28 28 29 30 30 31 32 34 38 38 38
87 89 91 89 84 78 74 74 78 77 79 81 79 79 77 72 67 70 74 75 74 71 67 60 51 44 39 38 37 38 38 38 38 41 44 43 39 37 35 31 29 27 25 25 25 26 27 28 29 30 32 35 37 37
87 88 87 83 80 78 74 74 74 74 72 72 71 71 70 73 71 64 62 66 65 59 55 48 43 39 35 35 37 38 39 40 41 44 42 42 40 37 32 29 25 24 24 24 23 24 26 29 31 32 35 37 40 42
84 85 80 79 76 74 75 72 70 69 71 73 77 80 72 58 45 51 54 54 55 53 47 39 34 33 35 38 41 42 41 40 42 44 45 43 39 34 30 26 25 23 22 22 24 27 30 33 36 40 42 43 45 46
81 78 75 73 71 74 74 72 72 75 76 76 71 66 61 48 48 52 53 52 51 47 41 38 38 41 44 45 43 41 39 40 46 47 44 40 34 30 26 24 22 22 23 25 29 34 38 40 41 42 44 46 48 50
74 73 73 72 76 77 78 77 75 72 68 67 64 60 54 49 51 55 53 51 47 44 42 43 45 48 48 43 42 40 42 48 49 46 42 36 31 27 24 23 23 25 29 33 37 39 39 40 42 44 46 47 50 55
68 70 69 71 76 79 76 73 71 72 72 68 63 57 50 50 52 53 53 51 47 44 42 44 48 46 41 40 41 44 50 52 49 43 37 32 27 26 24 25 28 31 33 35 36 38 40 42 43 45 52 60 66 71
65 66 68 68 72 76 75 72 68 69 65 59 60 56 49 51 53 52 51 49 46 44 45 47 45 40 38 42 45 54 55 50 45 39 33 29 27 28 30 30 31 32 33 36 38 39 41 46 55 64 71 76 78 79

GFSWCAN_prec_cthk_102.txt.gz
RH
98 98 96 86 81 70 62 58 50 47 44 39 35 34 30 26 28 39 49 41 47 51 51 57 57 63 60 51 55 49 54 74 64 73 72 71 67 64 77 72 63 69 81 72 71 74 85 68 58 60 81 86 83 81
93 93 88 83 79 76 66 58 58 48 41 35 34 34 32 25 26 36 45 45 49 53 55 55 56 56 48 48 50 48 60 72 72 69 74 66 66 69 65 95 72 76 67 76 69 81 77 73 79 79 78 77 80 82
90 87 82 83 81 73 62 54 49 45 41 35 37 43 37 24 26 30 42 46 55 57 57 61 63 69 59 51 51 52 77 64 73 74 68 67 68 75 78 79 76 76 63 70 72 76 77 78 82 85 84 86 82 82
82 81 80 82 80 78 68 60 52 51 45 42 43 42 40 35 25 28 38 52 59 64 66 79 75 59 54 50 57 58 62 66 59 63 67 67 67 71 80 80 78 67 66 69 72 74 79 82 85 89 88 84 82 80
74 72 71 71 74 77 74 66 62 57 48 44 44 44 43 39 27 23 36 58 67 73 76 71 66 67 58 57 58 60 62 63 62 60 71 73 65 74 74 76 84 76 74 75 80 83 83 86 87 88 88 87 85 82
73 76 76 74 71 67 65 67 62 58 48 44 41 49 49 35 23 33 52 62 67 71 78 68 81 80 66 62 62 67 75 72 63 58 52 59 68 80 76 92 93 85 78 80 85 85 83 85 87 86 88 88 88 87
67 69 70 68 63 59 56 57 58 52 44 40 43 49 42 27 27 53 64 75 72 75 81 75 79 81 68 67 70 78 79 82 71 60 50 57 69 81 83 89 91 83 83 84 90 88 87 87 88 87 87 87 85 84
65 67 68 68 61 58 59 54 52 48 41 39 44 45 31 30 42 60 73 80 81 80 83 87 85 89 85 82 80 79 77 74 68 60 58 67 74 86 96 92 85 76 76 83 85 85 85 83 83 83 84 84 82 82
63 66 66 64 59 57 56 56 52 50 44 43 48 42 44 44 56 69 78 83 84 87 88 85 82 91 93 89 89 84 80 78 74 79 72 75 82 94 95 87 81 80 75 75 75 74 74 76 76 77 80 78 79 78
61 65 65 66 61 59 54 55 52 52 53 51 51 60 58 58 72 79 87 88 88 87 84 82 77 86 90 88 87 79 75 74 95 78 73 72 84 84 84 83 82 81 76 70 69 69 73 77 78 77 76 74 73 72
56 59 65 64 61 60 55 56 54 57 54 57 65 67 67 74 87 91 90 88 85 84 79 75 73 81 88 85 92 80 94 85 81 88 77 83 85 81 76 72 73 73 72 73 78 81 80 78 75 73 72 71 69 68
61 62 68 68 65 61 56 54 59 59 57 65 74 78 80 91 93 93 86 83 84 79 77 72 69 79 98 92 98 81 76 79 83 87 82 76 78 76 75 75 73 71 77 85 86 83 80 77 75 73 70 66 60 56
64 67 71 69 67 64 57 54 50 60 67 73 81 92 90 92 97 87 80 77 78 75 76 71 75 86 90 81 81 84 76 82 83 87 82 81 74 74 75 75 79 86 85 82 78 76 74 69 61 57 53 52 52 51
70 75 75 65 61 61 57 55 53 65 71 82 93 97 94 89 81 73 70 74 78 75 69 69 73 79 76 76 86 91 91 81 78 82 88 85 82 81 81 84 84 82 81 79 70 57 50 47 47 46 45 45 45 45
82 77 68 64 64 60 57 58 63 69 86 94 96 98 89 87 78 83 81 87 79 70 67 73 74 79 78 83 88 93 91 86 84 94 91 88 87 84 84 84 82 79 70 61 53 46 43 43 44 44 44 44 45 45
79 75 72 66 65 62 67 72 68 87 95 98 98 98 83 83 83 81 77 74 69 63 72 78 82 85 80 83 91 90 90 91 93 88 86 85 84 84 80 76 73 61 48 45 46 46 46 45 47 46 46 45 44 42
80 73 63 59 59 61 71 76 79 96 97 98 98 94 86 84 82 78 72 71 68 74 77 85 83 82 83 79 80 82 87 84 83 82 82 83 81 78 76 53 44 47 48 49 49 49 49 48 46 45 44 41 39 35
78 69 61 66 66 70 75 75 94 98 98 98 96 90 87 82 80 72 69 68 69 70 76 86 78 79 79 79 86 81 79 80 80 79 81 80 78 53 45 48 49 49 49 49 50 49 48 46 47 48 44 42 39 41
76 69 67 66 70 74 72 89 98 98 94 97 92 88 85 82 79 75 69 69 69 69 71 72 76 76 83 76 76 76 74 75 76 79 78 65 45 47 48 46 46 46 47 49 50 51 50 47 43 43 41 40 41 41
72 70 70 78 80 79 84 95 96 97 93 90 85 85 83 79 75 72 70 70 68 67 64 64 71 76 75 74 72 72 72 74 78 78 57 45 47 45 45 46 49 48 50 49 49 46 48 46 47 43 40 37 36 39
68 70 79 81 81 84 88 96 91 90 90 83 80 78 77 74 72 71 73 69 67 64 62 61 64 69 73 76 75 73 74 79 75 51 46 48 44 45 44 49 50 53 55 55 53 52 47 44 43 42 38 38 38 36
71 71 76 76 78 82 89 90 89 86 83 80 80 77 75 75 72 72 73 72 66 63 61 61 62 65 70 74 73 76 78 76 55 45 46 42 44 47 50 51 53 56 55 54 53 50 47 45 41 38 34 38 36 36
74 75 77 79 88 84 87 87 86 83 81 83 82 80 76 73 70 71 72 66 62 63 60 58 61 64 71 72 74 76 77 65 47 43 43 48 46 46 48 45 47 51 54 56 51 44 44 41 39 34 34 34 40 41
79 79 80 81 88 93 90 86 80 81 81 84 84 77 71 71 72 71 69 65 65 64 62 61 62 68 71 72 74 76 72 56 41 42 42 41 40 43 44 42 46 47 46 45 41 38 39 41 40 37 38 39 40 40
85 86 88 83 87 91 87 89 88 84 82 80 79 75 73 76 77 73 65 64 67 64 64 65 69 70 74 78 81 75 61 43 40 39 40 41 41 41 41 44 49 48 45 44 42 40 37 37 35 32 31 31 33 36
92 87 85 80 80 81 86 86 84 85 79 77 75 77 84 87 84 78 69 69 66 65 66 69 71 76 78 79 74 64 52 40 38 39 40 40 40 44 50 57 60 58 48 41 34 35 34 32 30 30 31 33 35 38
95 95 92 91 94 89 88 87 85 85 83 79 80 84 89 88 81 75 73 68 67 67 68 74 77 77 76 76 71 58 40 39 39 38 31 29 30 33 40 52 54 48 41 33 29 27 27 30 32 32 34 37 39 41
93 96 97 95 96 96 96 91 89 86 81 77 80 83 82 76 74 73 70 68 68 71 75 77 77 76 74 68 61 47 37 34 31 29 26 26 30 37 43 47 44 40 34 30 27 25 25 26 28 31 37 39 42 46
92 95 95 93 91 89 89 87 85 83 80 80 78 76 75 75 75 73 73 72 71 72 74 74 74 71 66 61 50 34 29 28 27 26 35 40 45 48 48 46 41 36 32 29 28 29 29 28 28 30 36 43 49 55
92 94 90 90 89 86 85 84 84 82 80 79 77 75 75 74 75 72 69 71 73 74 73 71 68 66 61 50 35 30 28 26 27 34 39 46 50 47 47 43 39 35 32 32 30 29 29 29 32 40 50 55 59 62
89 91 89 87 88 89 89 87 85 83 80 79 78 76 73 71 73 74 65 63 66 70 67 66 65 61 49 36 29 26 24 24 27 30 35 42 45 47 45 41 38 36 33 30 29 29 30 36 42 49 57 61 63 65
87 85 83 81 82 83 82 81 79 76 75 74 74 76 78 78 76 71 56 56 60 60 61 60 57 48 40 34 29 26 25 27 31 35 41 46 48 47 44 41 37 33 31 30 30 33 40 47 53 56 57 57 56 53
80 80 77 74 73 73 76 75 74 74 75 76 77 79 80 78 74 67 60 57 58 61 61 59 51 44 38 32 27 25 27 31 36 43 48 50 49 46 41 37 34 32 31 33 38 45 50 51 52 51 48 45 46 49

GFSWCAN_prec_cthk_105.txt.gz
RH
98 98 97 93 88 93 89 78 69 53 50 49 44 42 37 29 31 37 40 36 36 38 41 44 47 48 49 46 50 37 40 53 54 71 79 80 87 77 90 87 77 75 88 78 80 80 81 73 60 61 76 83 83 81
98 98 97 95 89 82 77 69 62 57 52 49 41 42 39 29 28 35 42 39 37 35 38 44 44 44 44 43 42 39 52 59 67 66 74 77 75 81 83 94 78 82 73 81 75 78 81 73 72 75 79 78 79 79
98 98 98 96 95 91 81 71 69 60 51 49 44 42 37 27 25 36 38 39 37 40 43 44 53 52 52 48 43 46 61 61 60 69 74 78 75 78 89 93 92 88 73 73 75 74 74 73 75 78 78 80 81 78
98 98 98 97 94 92 84 74 64 60 54 46 43 41 37 30 27 33 37 41 42 48 52 64 66 61 52 47 45 49 55 61 57 58 67 74 67 74 85 87 86 83 73 73 73 74 74 78 79 81 81 84 84 81
98 97 97 98 89 85 79 68 54 53 47 45 41 40 43 38 26 28 32 43 50 59 63 56 53 62 57 49 49 53 55 57 56 58 68 75 68 69 81 88 89 85 82 79 78 79 78 80 83 85 85 84 84 82
95 96 93 93 94 88 83 75 68 60 53 48 45 47 45 41 30 27 29 44 57 64 62 58 61 62 66 53 52 57 62 67 65 64 58 53 64 75 84 91 90 88 87 81 82 83 84 86 87 86 84 82 81 83
88 87 87 85 83 84 84 81 72 62 57 51 47 52 52 41 29 40 49 60 62 66 65 62 70 75 71 64 59 65 73 77 78 68 51 50 61 72 85 91 91 87 86 86 85 89 88 87 85 86 84 82 84 86
89 89 88 85 84 79 75 72 70 65 58 51 53 54 48 36 31 50 58 66 68 65 66 72 76 81 78 76 72 74 73 70 67 60 56 59 66 78 92 89 86 82 80 81 83 83 81 80 75 77 79 81 82 82
80 79 81 80 79 72 71 70 64 59 54 56 54 46 38 31 31 49 64 70 69 70 72 75 74 87 83 84 85 81 77 73 72 77 68 75 81 92 93 86 81 79 76 74 76 75 71 71 73 79 82 81 79 77
72 71 71 71 66 66 63 60 58 55 52 51 51 42 37 31 40 60 73 73 73 74 75 75 77 79 83 83 81 79 75 74 90 85 71 80 92 89 88 85 79 77 77 77 73 71 70 77 79 78 76 72 71 71
69 69 69 67 64 62 60 58 56 55 57 54 45 53 59 58 67 73 79 76 75 76 74 72 71 72 83 88 86 79 93 90 92 96 85 86 86 83 81 78 74 72 72 75 79 85 86 84 80 75 70 67 64 60
64 68 70 67 62 60 57 56 56 56 55 48 58 67 71 72 76 80 77 75 75 74 72 72 69 72 86 94 95 92 86 75 86 90 87 82 79 78 78 78 76 75 78 82 84 84 79 77 74 69 61 55 50 48
60 62 67 67 62 59 56 56 59 62 58 64 75 82 73 79 83 78 73 70 72 70 76 75 78 82 92 91 84 82 71 79 87 90 88 84 79 77 78 77 78 83 84 81 80 77 71 63 55 49 46 45 44 43
61 57 65 69 64 62 57 59 64 65 68 74 80 83 76 78 72 69 66 70 71 70 70 72 71 77 85 77 72 77 82 84 82 88 92 87 85 82 81 83 84 83 81 77 69 58 50 46 42 41 41 41 41 41
66 68 77 74 69 65 61 58 60 65 75 80 80 90 75 84 74 81 80 77 77 76 70 71 71 75 75 73 76 86 88 86 90 96 92 89 87 84 82 82 77 74 69 58 46 41 41 42 42 41 40 40 41 41
78 84 83 79 70 66 64 62 61 70 76 80 80 90 87 83 88 86 85 82 83 73 72 72 75 77 75 74 86 89 95 95 95 88 85 82 83 82 81 75 71 51 44 43 43 43 43 42 42 41 41 41 39 37
82 79 74 69 67 65 63 65 70 72 75 84 92 97 92 87 90 86 79 74 70 71 74 79 82 77 78 74 83 87 91 87 82 82 80 78 79 76 74 50 44 46 46 44 42 42 43 42 42 41 40 39 37 36
81 78 76 72 69 72 71 70 69 74 87 89 98 98 96 88 85 81 76 73 76 73 76 81 76 79 78 78 82 80 77 77 78 77 75 73 75 57 42 44 45 44 43 44 44 46 45 46 47 50 48 45 44 43
79 76 72 67 65 70 67 68 77 85 93 95 97 97 97 91 86 76 72 72 74 69 69 75 77 76 76 71 74 76 76 72 72 73 72 73 52 43 45 43 42 44 45 46 48 50 51 49 45 44 44 42 41 41
81 71 67 66 68 71 74 74 81 94 94 95 98 96 94 89 84 78 74 73 73 65 63 66 68 70 73 73 71 68 66 66 67 72 72 53 43 45 42 41 41 42 43 44 49 50 49 50 50 49 45 42 39 34
81 74 74 73 86 91 90 79 91 95 92 97 96 94 91 86 81 76 72 70 67 64 62 60 58 59 63 66 69 69 67 66 66 66 53 41 43 41 44 44 45 44 46 50 55 55 55 54 50 47 46 43 39 34
77 74 76 84 90 91 89 82 91 88 93 92 90 87 85 83 79 76 72 71 65 62 58 56 57 56 57 61 67 69 67 68 75 66 44 39 40 42 42 40 40 45 51 53 56 55 53 50 47 45 44 41 35 33
76 78 82 86 89 85 83 78 79 82 86 90 88 84 81 78 74 73 71 65 64 60 56 57 56 56 57 61 68 69 70 75 75 61 42 39 43 45 45 42 42 47 48 50 54 53 50 44 42 40 37 34 32 33
84 84 80 81 84 79 76 78 81 85 82 84 83 80 77 78 75 73 67 61 60 61 57 56 56 57 59 63 68 70 75 77 70 55 41 42 44 44 39 36 36 37 40 46 49 48 47 45 42 39 36 32 31 32
83 79 80 81 84 85 81 81 80 81 84 81 79 76 78 78 74 69 61 58 58 58 58 59 60 60 60 64 69 73 78 76 66 47 37 38 39 37 34 31 33 37 43 47 49 50 47 43 39 36 33 29 28 31
82 79 71 74 79 87 86 88 84 81 77 76 74 72 73 76 76 69 63 65 68 64 60 60 61 61 64 69 74 78 80 72 57 42 38 37 35 35 35 36 39 43 47 50 48 40 37 35 33 30 28 31 33 34
93 91 81 82 78 74 79 83 82 83 82 81 78 77 77 75 69 66 67 70 71 68 64 61 62 64 71 78 81 80 74 67 54 36 30 28 29 29 31 34 39 43 44 45 42 37 34 32 30 29 29 30 34 38
97 96 96 97 95 92 90 88 84 82 82 82 80 76 72 70 70 73 76 75 71 67 64 65 69 73 79 82 80 74 68 61 45 29 24 23 24 26 29 33 34 38 43 44 40 37 35 33 30 29 30 35 41 46
97 97 97 97 96 97 97 92 86 82 80 80 79 77 75 75 80 81 77 74 73 72 71 72 76 80 81 81 76 70 62 49 30 23 25 28 29 33 35 35 37 42 46 43 40 37 34 31 30 33 38 44 51 55
92 97 97 95 95 95 93 91 91 87 86 86 85 84 83 83 83 81 79 76 76 76 76 77 78 80 78 74 68 59 48 34 24 25 32 32 34 36 37 38 43 48 47 42 38 35 32 33 36 40 44 47 50 51
92 95 96 95 96 95 92 88 86 84 83 83 82 79 79 78 77 77 77 78 78 72 74 77 77 76 73 67 60 52 40 31 28 29 30 30 34 37 41 46 51 48 42 39 35 33 35 40 42 43 45 44 41 41
91 91 90 92 92 91 92 94 92 89 87 85 84 81 80 80 78 76 77 78 74 65 66 72 73 72 68 61 52 43 32 28 28 28 28 32 37 42 49 52 49 43 40 36 36 39 42 41 39 39 38 34 39 44
89 89 87 86 88 88 87 86 85 85 83 82 79 77 78 78 79 80 84 81 70 59 60 66 67 63 60 56 45 35 31 30 28 28 32 37 45 52 52 49 43 39 38 39 40 41 38 34 36 34 32 38 43 44

GFSWCAN_prec_cthk_108.txt.gz
RH
98 98 96 92 77 77 88 89 87 73 60 50 49 50 33 35 35 35 34 32 30 31 38 39 40 38 40 36 40 36 39 44 44 51 59 80 88 89 96 89 85 84 91 86 88 86 85 81 68 70 77 83 84 83
98 98 95 87 88 92 85 78 70 63 66 66 57 41 28 31 36 38 35 31 28 31 35 37 36 35 35 37 40 39 50 52 54 54 57 75 86 92 95 97 86 86 78 85 79 84 84 77 72 73 75 75 78 78
98 98 97 96 95 94 92 87 84 78 66 53 45 41 33 30 37 34 30 30 32 35 37 37 43 44 41 44 41 39 52 53 49 51 61 73 86 87 95 97 93 94 79 74 77 78 76 74 74 74 76 75 76 77
98 98 96 95 93 87 81 71 67 57 53 50 52 48 40 32 31 33 30 35 39 41 46 49 50 50 49 46 41 43 45 51 52 52 53 70 74 80 89 93 91 91 85 76 77 76 75 74 75 76 75 76 76 78
98 98 98 97 95 92 82 77 74 67 64 53 52 50 40 27 26 30 34 41 44 48 52 52 51 55 50 48 44 48 51 53 55 54 59 66 67 74 82 92 90 87 87 85 79 76 75 77 77 77 77 78 82 80
98 98 98 98 96 91 88 76 67 62 61 55 51 45 39 30 26 30 31 40 48 53 53 53 51 54 57 52 53 54 56 62 62 62 59 55 66 70 81 86 90 86 86 84 82 81 79 79 78 78 79 80 80 79
98 98 98 98 97 90 84 71 63 54 48 46 45 40 38 35 29 31 40 52 50 53 54 55 58 63 65 61 60 61 65 73 76 71 57 48 58 71 86 88 88 86 85 85 84 81 80 82 77 74 74 75 76 77
98 98 97 98 98 96 86 74 62 58 57 50 47 50 46 34 41 45 53 56 56 57 56 59 71 75 72 72 66 68 70 70 67 63 56 55 58 77 88 87 84 80 79 80 83 79 77 72 69 69 69 71 73 75
96 97 96 96 93 92 89 83 73 64 56 53 56 52 45 35 41 57 60 60 59 61 61 63 66 79 80 79 79 78 75 73 72 74 67 69 80 86 88 79 75 76 75 73 72 72 72 67 70 75 73 72 72 72
92 93 95 97 91 86 84 78 73 68 65 63 55 47 40 31 39 56 60 62 61 62 64 63 66 74 78 80 75 73 70 76 89 83 72 84 87 87 87 84 80 77 73 74 74 71 68 72 75 72 67 65 63 63
95 95 95 94 91 87 83 79 70 66 65 59 50 54 47 37 44 56 64 64 63 63 61 61 65 74 79 84 82 74 84 86 92 96 83 82 83 82 80 80 77 76 76 75 78 82 85 84 80 74 71 66 58 52
80 79 79 74 72 71 66 63 60 52 52 49 57 58 55 59 64 68 67 63 62 62 62 66 71 71 79 88 87 86 84 75 88 89 89 85 81 82 81 80 78 78 81 85 87 84 81 78 72 63 54 49 46 45
78 78 74 68 67 64 60 57 57 54 51 59 65 66 62 64 68 66 62 58 64 60 68 69 78 74 83 92 93 85 76 75 88 89 83 80 79 78 79 79 79 82 85 83 80 77 68 61 54 48 43 41 41 41
78 77 76 67 62 60 57 58 60 58 61 64 69 69 66 64 62 55 51 55 56 62 69 73 78 78 88 88 77 74 71 82 85 83 84 83 81 80 80 82 83 82 79 73 65 55 47 41 40 40 40 40 40 40
75 78 77 72 64 61 59 61 64 62 68 73 73 73 66 69 60 66 71 67 65 68 72 76 76 73 85 82 69 72 85 84 81 86 88 86 85 83 83 83 80 73 63 46 40 41 41 41 41 41 41 41 40 40
72 77 77 74 64 61 65 67 67 65 68 70 72 78 67 73 68 73 82 79 76 77 76 77 78 76 78 69 74 76 86 88 88 85 84 81 80 82 82 78 66 44 42 42 41 40 41 44 44 43 43 41 38 38
72 69 75 78 66 62 61 61 64 64 67 71 79 82 74 71 82 80 86 90 82 77 81 80 74 73 71 69 73 85 87 87 81 80 80 77 76 78 75 47 42 42 40 40 41 43 45 45 46 44 44 43 42 41
77 78 82 80 71 70 66 62 62 63 68 69 82 89 86 81 87 85 80 81 78 77 79 77 80 78 73 75 73 76 79 79 76 77 75 71 73 67 43 41 42 39 39 42 43 42 42 45 47 45 45 46 46 43
81 80 79 73 68 66 66 63 62 67 69 74 87 95 94 90 92 87 82 79 81 80 78 79 79 74 72 72 73 74 73 70 70 71 69 70 68 45 41 40 40 40 42 41 40 44 45 47 47 47 48 48 48 48
79 76 74 74 70 68 63 60 61 71 68 79 91 95 97 93 85 79 78 78 79 76 71 76 73 72 70 69 66 65 64 64 64 67 68 69 53 40 41 40 42 41 39 39 41 41 43 48 53 54 53 52 51 49
81 81 80 73 71 68 64 60 65 78 82 89 91 94 97 92 87 80 78 78 76 69 67 62 62 61 63 65 64 65 66 65 64 61 62 58 44 41 40 42 42 41 41 39 39 45 48 49 53 56 56 54 50 47
76 78 74 76 79 86 83 67 82 90 91 92 94 97 95 92 84 79 77 74 69 65 61 57 55 54 54 56 60 64 66 66 61 60 64 56 41 38 41 43 42 41 39 36 38 45 48 51 55 56 53 47 43 40
74 77 78 80 83 79 80 81 92 92 93 97 98 97 94 90 82 76 69 66 62 56 57 56 54 54 54 51 53 60 65 66 66 67 63 52 38 36 39 39 40 40 37 37 40 42 44 47 50 50 47 44 41 38
77 81 80 77 77 78 78 91 90 86 88 93 91 87 82 79 75 71 69 60 57 57 58 58 56 55 53 53 52 59 66 70 74 74 68 54 40 40 43 44 40 36 36 37 39 40 40 45 50 49 46 43 40 35
79 78 78 75 83 77 72 73 78 78 79 80 79 78 78 74 73 72 65 57 55 56 56 55 56 56 56 56 57 62 68 72 75 75 69 54 43 42 40 35 33 31 32 36 40 40 42 48 48 45 42 37 33 33
78 74 74 78 80 79 72 70 67 66 69 71 73 73 73 73 71 64 57 54 55 55 55 54 55 56 57 57 59 66 72 75 79 76 65 51 41 35 29 28 32 35 39 42 40 36 41 45 41 39 37 34 33 35
90 82 68 68 75 78 84 75 70 70 70 70 72 73 74 74 65 57 55 58 61 65 63 61 59 58 59 62 67 71 77 81 80 74 63 52 38 29 30 33 36 41 42 38 36 40 45 44 41 38 34 34 36 39
93 93 94 85 79 79 79 83 89 86 84 81 79 80 78 69 61 58 59 64 71 74 69 65 64 65 66 68 72 78 83 84 80 70 55 40 29 26 28 31 35 37 35 35 40 47 47 43 39 35 35 37 40 43
97 98 98 98 96 93 93 90 83 79 79 81 77 77 74 70 69 67 69 76 79 74 71 70 69 69 71 75 80 85 86 81 71 58 42 30 24 28 31 33 35 36 37 41 49 48 43 40 37 37 40 40 42 44
90 96 97 98 98 98 97 97 96 91 87 83 81 79 78 76 74 75 77 78 78 75 74 74 73 74 78 82 85 86 83 75 62 47 37 32 32 32 32 34 37 39 42 49 48 43 41 39 41 42 40 38 37 35
96 96 97 98 97 97 96 95 95 94 91 90 88 83 81 79 78 78 78 77 77 76 77 78 78 82 84 83 84 82 73 63 51 42 38 36 32 30 33 38 41 42 50 49 44 43 42 42 39 33 33 31 31 35
97 97 97 97 97 97 97 97 96 94 93 90 88 84 82 81 80 79 78 78 80 82 85 79 71 75 81 84 80 74 64 52 44 37 32 30 30 33 39 40 42 51 49 45 44 42 40 35 31 30 29 31 34 39
95 96 95 94 95 94 94 95 94 95 94 91 87 85 86 83 82 83 83 81 83 83 82 75 67 69 73 74 69 60 50 42 36 32 30 31 35 39 39 45 51 48 46 44 41 37 33 30 28 29 31 33 38 42

GFSWCAN_prec_cthk_111.txt.gz
RH
97 98 98 98 98 98 94 90 87 74 65 55 56 58 48 45 33 28 26 25 30 36 39 38 35 35 36 32 33 32 38 40 39 46 47 56 72 89 98 94 91 87 92 91 92 87 90 86 82 77 82 84 83 82
98 98 98 97 94 91 93 87 82 78 67 58 52 55 46 45 35 29 25 26 28 32 34 35 36 38 34 34 33 37 44 44 46 49 50 59 71 92 94 98 92 88 85 90 89 89 87 82 74 74 76 77 78 78
98 98 97 90 96 97 94 87 74 66 61 56 57 51 59 51 35 31 30 28 28 27 31 35 39 39 36 36 36 35 45 46 43 44 53 62 76 88 96 96 95 96 86 82 83 85 81 77 75 76 78 77 78 79
97 94 93 96 98 98 95 87 81 78 68 55 56 64 56 45 36 33 31 30 27 29 40 47 45 45 43 43 37 38 40 44 44 43 46 60 73 83 95 96 92 93 91 87 83 81 79 78 77 77 78 75 74 75
97 97 98 98 97 93 90 85 78 75 76 79 67 49 40 37 38 37 33 30 30 34 44 46 49 47 47 45 42 42 43 46 48 51 54 58 65 75 91 94 93 93 92 90 87 79 78 79 79 77 77 76 75 73
96 96 95 94 92 89 84 82 77 70 64 59 54 47 43 42 41 35 28 30 34 40 46 51 49 54 51 46 46 47 49 55 59 62 60 55 60 70 87 91 94 92 91 87 86 83 81 80 79 76 73 73 73 72
98 98 96 96 94 87 84 78 70 62 63 63 58 50 44 34 33 26 25 32 39 44 47 51 53 56 57 55 53 55 55 62 70 70 65 58 60 76 86 89 91 88 85 87 85 83 83 77 73 66 65 65 66 66
98 98 98 96 96 93 87 75 71 65 60 69 58 48 36 33 28 36 41 43 47 49 48 54 59 62 62 62 60 58 60 66 67 68 61 59 55 80 85 87 87 81 80 82 84 81 75 70 67 67 69 71 72 71
98 98 98 98 98 91 84 77 72 68 63 58 57 46 32 36 41 50 51 54 55 53 50 53 61 68 68 67 70 70 68 68 67 73 66 68 76 77 84 85 80 76 73 72 71 71 69 65 64 70 72 72 68 67
97 97 98 98 98 92 79 68 61 55 53 52 47 38 31 42 54 56 59 58 56 55 53 54 60 68 68 72 75 69 67 72 83 82 73 78 81 83 85 79 77 74 72 70 69 70 67 66 71 73 70 64 62 60
98 98 97 96 97 96 84 76 70 68 62 56 50 51 39 51 56 56 56 56 54 54 52 54 58 64 70 78 77 74 78 78 86 87 79 83 83 82 81 81 78 77 76 75 74 78 79 78 74 70 63 54 47 43
94 97 97 94 93 88 82 76 77 73 64 58 54 50 52 54 56 54 53 54 53 55 54 57 57 63 75 82 79 82 84 80 84 86 83 80 76 77 79 78 77 76 75 77 80 81 79 76 66 57 51 45 42 40
96 97 96 94 92 88 82 78 76 70 66 66 57 59 59 61 59 55 55 54 55 52 55 59 64 67 75 86 90 85 80 73 86 87 81 73 75 75 76 77 76 77 80 81 79 75 66 56 49 43 39 38 38 38
95 93 89 84 81 76 68 69 67 63 66 64 62 60 61 56 52 51 50 51 54 53 59 61 68 73 78 87 85 80 72 77 84 81 76 74 73 74 74 78 81 80 77 72 60 48 42 40 37 38 40 41 41 41
85 79 76 74 69 63 58 62 60 59 62 66 63 60 62 59 56 60 57 55 58 61 63 66 70 74 82 87 82 76 79 82 77 75 75 77 81 81 79 79 78 73 62 41 39 39 37 40 42 42 43 42 41 40
85 81 75 68 66 64 61 66 63 62 65 66 65 65 64 60 65 66 68 68 65 66 68 69 76 75 76 82 83 70 77 78 73 77 80 79 77 76 79 76 74 47 40 39 38 39 41 42 41 42 40 39 37 36
82 77 73 71 68 69 69 68 66 62 67 67 71 69 68 64 71 75 78 77 73 74 74 74 75 74 74 74 72 76 80 82 85 78 76 77 73 72 75 63 40 40 38 36 37 40 40 40 39 38 39 41 42 42
80 79 76 72 67 70 70 68 63 61 65 66 74 74 70 73 68 78 81 84 82 78 80 80 77 77 76 71 67 73 81 82 78 74 75 74 69 70 60 41 40 38 36 38 40 39 39 36 37 37 37 42 45 46
73 75 78 73 65 61 59 60 62 61 63 67 75 76 73 76 79 80 83 85 82 79 80 79 79 79 75 75 78 76 77 75 74 68 68 68 68 65 48 40 39 37 39 39 39 37 35 35 35 36 39 42 47 51
78 81 81 78 72 65 60 58 54 62 60 64 80 80 81 81 89 84 82 78 79 79 80 85 83 78 73 71 69 68 68 65 63 65 66 66 65 56 43 40 39 40 40 39 38 36 34 34 35 39 42 47 54 56
87 86 83 76 70 66 63 54 50 58 62 69 83 87 90 91 92 85 81 78 77 76 75 74 73 72 71 68 66 65 65 65 64 62 61 61 58 51 41 40 40 40 39 38 38 36 36 37 40 43 46 52 55 52
82 78 76 72 69 65 69 58 61 66 70 77 77 81 92 93 86 81 79 77 75 70 64 60 60 59 59 60 62 62 62 63 64 63 58 57 57 54 43 38 38 41 40 40 40 39 40 43 45 46 48 51 52 48
76 77 74 78 80 79 82 64 71 78 84 82 83 91 96 95 87 81 76 70 66 62 56 54 55 54 53 52 51 53 56 59 59 57 56 60 62 58 46 39 39 41 41 39 38 40 43 45 45 44 46 51 50 46
77 74 76 76 79 82 79 70 83 88 95 92 94 97 97 95 88 81 73 66 62 57 54 52 54 55 54 53 51 51 52 56 62 60 58 62 63 58 48 39 40 40 37 37 38 42 46 44 42 43 48 51 46 40
78 76 74 72 77 78 76 77 87 92 88 93 94 92 90 84 80 72 65 60 58 56 56 56 56 57 56 54 56 57 57 60 64 66 66 69 70 60 50 44 41 37 33 33 39 47 46 42 39 40 46 44 40 36
76 70 69 69 74 79 75 81 84 85 84 85 86 80 75 74 71 63 56 59 59 58 58 55 54 54 55 57 59 62 61 62 67 69 73 76 75 65 55 46 38 31 32 40 47 44 39 37 36 45 45 41 37 35
76 72 69 71 77 75 73 74 72 73 73 70 73 72 67 65 59 53 57 59 58 56 57 58 59 59 61 61 62 62 63 65 70 75 80 78 72 63 55 43 35 34 38 44 43 39 38 38 45 47 42 39 37 37
84 76 72 71 67 67 75 77 74 65 58 55 57 57 57 55 54 59 64 63 63 63 63 63 64 65 65 65 66 66 67 71 77 81 82 78 70 59 50 39 35 35 38 38 38 40 39 45 48 43 41 40 39 37
94 96 97 97 94 88 81 76 76 75 76 76 73 73 69 65 66 65 67 68 68 68 69 68 68 70 70 71 71 71 74 78 83 85 80 69 60 47 38 33 32 33 36 38 40 39 45 48 45 45 41 37 33 31
89 93 97 97 97 96 95 92 90 88 85 80 76 71 71 71 70 71 70 71 73 72 71 73 75 76 75 75 75 75 79 83 87 84 72 60 48 42 36 33 31 35 39 40 39 46 48 46 44 39 34 31 28 29
91 93 95 95 95 95 97 97 97 97 96 91 87 82 78 76 76 75 74 74 74 75 76 78 80 82 80 78 81 84 86 87 86 75 63 52 46 36 34 31 37 40 39 41 48 49 47 43 36 32 27 26 29 31
92 96 97 97 97 96 97 97 97 97 97 95 90 85 82 80 79 78 78 78 79 81 80 80 81 82 85 82 79 82 86 82 76 64 53 46 38 35 34 39 41 40 43 50 47 44 39 34 30 25 26 28 30 34
94 97 97 97 97 97 97 97 97 97 97 94 92 90 89 86 84 84 84 85 84 81 80 83 86 87 86 77 73 75 73 69 60 51 45 39 35 37 42 43 41 46 49 46 41 37 32 28 24 26 28 30 33 38

GFSWCAN_prec_cthk_114.txt.gz
RH
98 98 98 97 98 98 97 93 86 79 74 81 68 55 62 60 59 50 37 38 39 39 40 36 35 34 32 28 30 32 35 37 37 42 44 50 61 67 81 85 87 85 96 96 97 95 93 94 91 81 84 85 81 78
98 98 98 98 97 98 98 96 90 87 73 61 58 68 62 60 44 35 33 37 34 30 37 39 37 31 29 29 31 38 39 39 41 44 47 53 63 70 87 98 91 92 93 96 97 96 94 91 84 82 83 83 80 78
99 99 98 98 98 97 95 91 83 75 64 63 73 62 63 49 45 39 33 31 32 34 39 39 38 32 31 34 32 34 37 38 36 41 46 56 63 69 86 96 96 97 93 94 96 96 93 89 84 78 76 75 76 73
98 97 98 98 98 98 95 85 78 73 64 59 68 66 51 50 40 36 31 30 28 31 41 43 40 39 40 38 34 32 33 37 40 39 43 52 62 70 87 96 92 95 96 96 97 95 93 90 88 80 77 76 75 74
98 97 98 98 98 96 92 85 82 78 68 61 65 62 50 53 43 34 30 30 30 29 39 45 46 47 46 42 39 34 36 39 41 44 49 54 55 65 80 91 94 97 96 97 97 93 93 90 86 82 79 76 73 71
95 97 98 98 97 97 89 76 69 67 61 60 60 65 69 51 41 35 34 37 36 35 37 51 54 53 50 46 41 40 44 46 48 52 53 49 53 63 77 87 95 97 97 96 96 96 92 90 84 80 76 72 69 66
99 98 98 97 95 89 85 85 84 79 71 69 73 68 50 44 38 32 33 37 37 34 40 53 59 58 52 47 47 49 51 51 58 62 62 58 59 65 75 85 94 95 95 96 94 93 93 86 78 73 70 67 66 67
94 95 96 96 92 90 91 90 87 83 81 67 53 42 40 45 42 37 37 35 38 38 41 51 57 56 53 53 56 55 53 56 62 65 61 61 61 63 78 85 88 92 91 92 93 90 81 75 74 69 70 71 69 67
97 97 96 91 89 83 77 78 77 75 64 54 48 48 54 45 42 44 40 39 41 43 44 50 53 59 55 60 62 61 60 62 61 62 62 67 69 68 76 85 85 84 81 79 76 74 71 71 69 69 71 69 63 61
98 98 97 94 92 85 81 82 88 86 71 54 56 46 41 50 47 46 51 50 48 47 45 50 52 59 60 63 68 65 65 68 76 76 70 68 74 72 83 84 79 76 73 70 69 71 71 69 69 71 67 61 55 47
98 98 98 95 91 86 82 80 82 79 72 52 49 48 55 52 50 53 56 55 52 50 45 49 53 58 64 66 66 68 71 73 77 81 73 79 74 76 81 78 77 78 77 74 72 73 75 72 70 67 55 46 41 39
99 99 98 98 93 83 79 74 65 61 55 49 40 51 53 52 51 54 56 54 50 49 48 50 53 56 64 70 70 73 77 77 78 82 80 74 73 75 76 77 78 76 76 77 79 80 80 74 61 51 46 41 38 36
98 98 98 97 92 85 81 74 71 64 55 44 44 50 52 57 56 55 57 52 50 48 49 52 57 59 65 72 78 80 78 74 71 83 80 70 71 73 77 76 76 76 78 80 80 76 65 54 46 40 38 39 39 39
98 98 97 96 94 93 90 86 75 67 59 60 60 61 63 59 55 55 51 49 48 50 51 54 58 62 68 74 82 77 76 73 71 80 74 69 68 71 71 74 79 80 79 75 66 51 43 39 40 39 41 41 41 39
98 98 98 97 95 90 90 84 78 73 68 70 65 64 66 59 57 55 55 56 57 56 58 57 63 66 72 77 76 76 79 72 72 70 71 70 73 79 78 78 78 77 70 50 40 40 38 40 39 40 39 36 35 34
98 98 97 95 87 82 80 79 75 73 69 68 65 63 60 60 61 57 58 59 60 60 61 61 67 67 71 73 77 74 66 69 70 71 74 76 77 74 75 78 75 70 43 41 38 37 38 39 39 36 32 30 30 31
92 88 86 82 76 70 68 68 63 63 62 63 65 62 62 62 65 67 63 62 63 64 68 66 67 66 67 71 74 72 66 74 78 79 78 77 76 73 70 74 61 42 39 36 34 37 38 39 35 32 32 30 30 32
81 81 75 71 67 65 68 65 58 59 62 67 67 66 66 66 71 73 73 72 71 72 71 73 67 69 73 74 69 62 69 84 83 76 75 75 75 71 70 64 43 40 37 35 36 37 38 36 34 33 30 31 32 34
78 78 77 70 67 64 62 63 58 58 62 69 72 71 71 68 72 74 76 79 81 77 77 77 74 74 75 70 68 68 73 79 77 75 74 70 70 70 67 53 42 39 37 36 37 38 37 37 36 34 33 35 38 38
83 81 77 70 62 60 59 58 56 57 60 66 71 71 71 71 71 73 80 80 80 78 77 79 79 78 76 70 69 68 67 70 68 68 66 66 67 66 59 50 44 40 39 38 39 39 38 37 36 35 38 43 43 42
83 84 79 71 64 61 58 52 51 53 56 56 65 70 68 70 78 75 73 75 78 76 81 82 81 78 73 68 67 66 65 66 66 64 62 61 62 59 53 51 47 41 39 37 39 38 38 38 37 39 46 47 46 44
77 79 79 70 65 59 62 55 57 59 57 57 62 70 70 69 79 83 81 79 75 73 74 73 73 71 69 66 63 63 63 62 62 61 61 60 58 54 56 56 50 43 37 37 39 41 41 38 39 45 50 49 45 43
81 81 75 68 62 59 74 64 58 60 63 63 72 74 71 72 84 87 82 75 72 71 66 65 62 61 60 59 59 58 56 55 54 56 57 56 56 56 57 60 57 47 40 39 40 40 39 38 43 50 48 46 44 42
78 73 69 65 66 75 76 69 64 70 71 74 83 85 82 85 90 85 80 73 71 66 64 60 57 55 55 55 53 52 50 49 48 48 51 55 56 59 62 62 60 53 44 41 41 39 37 39 46 47 45 42 39 42
74 73 73 68 72 79 76 69 71 77 82 90 92 88 89 91 92 86 80 73 68 65 63 62 59 57 58 58 58 56 55 55 55 53 53 55 56 59 61 62 63 60 52 46 42 35 37 42 41 40 39 38 42 42
73 74 71 71 74 78 77 71 74 87 95 94 91 89 88 85 83 78 71 69 64 62 63 63 62 60 59 59 58 58 59 60 61 61 59 61 60 63 66 70 66 58 51 44 41 39 36 36 39 40 38 42 43 41
75 73 66 68 75 75 79 79 81 90 93 88 87 90 84 78 73 65 65 63 63 61 62 62 62 61 61 61 62 64 64 64 64 64 66 67 70 69 72 72 66 58 52 44 41 33 35 40 41 39 43 44 42 40
68 66 68 72 75 76 80 87 88 83 81 79 79 76 74 67 62 59 59 62 64 66 66 64 61 60 59 61 63 67 68 70 71 71 71 73 75 78 77 73 64 56 46 38 34 35 41 42 41 44 46 44 38 31
76 74 73 73 73 73 74 74 72 70 72 72 68 63 59 57 58 62 62 62 66 69 68 66 65 65 64 65 69 72 74 74 72 72 75 77 78 77 74 65 54 45 38 36 37 41 44 43 46 46 42 34 28 24
80 85 91 96 96 92 86 84 82 77 70 68 69 68 67 66 65 64 65 69 70 70 69 69 70 70 69 71 75 77 77 77 77 79 82 80 77 69 63 55 48 40 39 39 43 45 45 46 44 39 32 26 24 24
90 91 92 94 95 95 94 90 87 84 81 81 79 77 76 76 75 73 72 72 72 73 73 71 71 72 76 79 81 82 84 84 87 89 83 77 71 65 55 48 42 40 42 46 48 46 46 43 37 31 25 24 24 26
96 96 96 96 96 96 98 98 97 95 93 91 88 86 84 81 77 73 73 72 74 75 76 76 77 81 84 87 88 91 92 86 82 78 73 69 59 49 42 41 42 45 50 48 46 45 40 36 29 25 24 24 25 28
98 99 97 96 95 96 98 95 96 95 94 92 90 89 87 84 79 76 80 80 80 81 82 83 85 86 89 92 93 94 93 87 76 64 54 49 44 41 44 47 51 50 46 45 44 38 34 29 26 24 24 25 27 31

GFSWCAN_prec_cthk_117.txt.gz
RH
98 98 98 98 98 98 98 98 98 97 97 97 95 95 93 88 76 59 60 60 52 57 53 42 37 34 35 27 24 29 34 37 35 40 39 44 50 56 65 69 75 70 80 88 94 95 95 97 98 92 90 92 89 85
97 98 98 98 97 98 98 93 91 88 92 94 97 93 84 63 56 69 59 47 46 46 50 48 41 36 28 20 25 34 35 38 36 38 40 45 50 57 71 81 78 80 80 92 96 96 97 98 98 96 93 88 85 82
97 98 98 98 98 97 89 84 93 92 84 82 73 57 54 65 64 56 48 45 43 47 49 46 43 35 27 26 30 34 36 32 32 33 37 47 49 56 68 82 95 94 91 96 97 97 97 97 95 91 89 86 82 79
97 98 98 98 98 98 97 82 90 94 82 65 59 65 64 60 51 40 40 45 45 45 51 56 45 34 32 34 34 31 30 29 30 33 39 46 53 60 71 75 86 94 94 95 97 97 97 98 96 92 86 81 80 78
98 98 97 98 98 96 97 96 87 76 68 70 72 65 61 43 42 41 43 44 33 29 49 54 47 43 44 42 35 32 29 29 30 34 40 45 55 63 69 75 82 91 94 96 95 93 95 96 96 91 85 79 76 73
98 98 98 97 97 94 89 85 74 71 78 77 68 64 49 52 50 42 39 43 36 35 44 55 56 54 51 46 39 35 34 33 37 39 44 46 51 56 67 69 85 94 94 96 96 96 94 95 92 88 81 76 70 64
98 98 98 98 97 90 85 78 72 68 69 75 63 53 55 45 44 41 42 47 39 37 41 56 64 60 54 49 40 38 38 41 44 48 53 54 60 62 62 69 81 96 98 97 96 96 96 93 84 78 74 69 67 65
98 98 98 96 95 88 89 82 73 67 66 69 65 63 62 51 40 43 46 45 41 38 42 53 65 61 53 48 46 48 46 47 49 55 55 58 62 63 66 69 79 86 91 94 97 97 91 86 81 75 72 71 67 62
98 97 96 92 93 90 81 70 66 64 67 69 72 67 53 45 50 53 47 42 37 37 46 50 54 60 54 52 57 54 49 49 52 54 54 58 63 64 64 69 79 81 84 86 87 86 83 80 77 71 72 70 61 56
96 95 92 95 95 94 92 87 79 74 74 69 55 48 49 55 57 50 42 40 41 43 46 53 52 53 55 58 61 57 55 57 65 67 63 61 60 62 75 79 77 80 78 78 74 72 72 72 71 74 70 59 45 41
93 94 90 88 87 89 91 87 74 68 59 48 46 64 71 58 50 46 46 47 49 52 52 55 56 55 57 57 55 58 59 63 67 72 67 69 63 64 76 82 78 77 75 76 73 73 77 76 73 68 54 45 40 38
95 93 90 89 88 89 89 80 67 61 56 58 68 61 55 51 45 48 55 54 54 52 55 56 55 56 59 56 59 61 66 67 71 74 72 65 66 72 76 78 79 77 77 79 79 80 81 81 69 56 46 41 39 39
98 95 90 89 90 89 87 79 75 71 64 58 54 54 49 50 52 54 60 59 55 49 49 52 52 55 59 60 64 63 68 68 69 71 70 63 66 71 75 79 78 77 78 79 81 82 75 60 49 41 39 40 38 36
98 97 94 91 86 81 76 72 68 63 58 52 52 55 54 59 61 62 55 50 46 46 46 51 51 52 55 61 67 68 72 70 67 70 68 65 67 73 75 76 76 80 82 80 76 63 48 40 40 40 40 37 34 32
97 96 95 96 92 79 70 64 58 53 50 53 51 62 68 70 66 63 57 51 50 50 49 50 51 54 57 64 64 69 75 71 62 64 66 67 70 78 78 76 78 79 78 69 47 41 39 40 40 38 36 33 30 28
95 96 97 94 94 93 82 68 61 57 60 68 72 75 73 68 63 62 60 57 54 54 53 51 54 57 62 62 65 71 71 63 62 65 70 71 75 75 72 77 79 76 69 43 40 38 38 38 37 36 32 31 30 29
95 95 96 91 89 87 85 77 74 70 71 77 79 73 67 63 59 61 60 59 58 57 57 54 54 55 59 64 69 68 71 63 71 72 73 75 75 77 73 72 73 64 43 40 36 35 37 36 37 36 35 36 36 34
95 96 94 87 82 79 79 78 75 71 77 76 72 68 65 65 65 63 60 62 60 59 59 58 53 57 60 64 67 67 67 68 74 74 74 73 74 73 71 69 67 47 41 39 36 36 36 37 37 39 38 38 35 35
91 87 82 76 73 67 66 65 62 67 71 72 69 66 66 68 72 70 67 67 64 63 62 61 61 61 63 66 70 69 66 75 79 78 76 74 72 70 70 70 59 48 43 40 39 38 38 39 39 40 41 40 38 39
85 80 72 66 62 57 55 57 55 61 68 71 69 69 67 69 72 75 75 74 74 70 67 66 67 66 70 72 73 70 67 71 74 74 73 70 69 68 68 66 56 51 47 43 41 39 39 40 41 42 43 42 40 43
79 76 68 61 56 53 52 50 51 54 61 63 65 65 64 63 68 71 72 75 74 72 70 67 68 72 76 73 70 66 64 64 63 64 64 65 63 64 63 57 52 51 50 47 43 40 39 39 41 42 43 42 42 46
73 71 66 61 56 53 59 53 56 55 54 57 59 62 64 64 63 66 71 70 71 68 67 70 75 76 74 71 69 65 64 64 63 63 61 60 60 61 59 55 55 55 54 53 50 46 43 40 40 42 43 42 43 46
71 69 64 60 54 53 66 56 57 59 57 56 54 57 62 62 62 66 70 70 72 66 66 68 69 69 68 65 65 63 60 60 56 53 51 53 57 57 57 56 55 57 58 58 57 52 48 46 46 46 42 41 42 43
70 68 64 58 57 66 67 64 59 62 63 62 57 60 66 66 62 74 79 80 74 69 69 68 66 64 61 58 57 56 55 52 49 46 46 48 49 50 53 56 57 58 59 61 62 61 54 49 47 43 41 38 40 42
73 70 65 63 65 70 73 67 62 65 69 67 67 75 78 73 73 84 84 80 76 72 70 68 67 64 60 59 58 56 54 54 52 50 50 49 51 52 53 56 57 59 60 63 62 60 57 49 43 41 39 40 43 46
69 68 65 63 68 71 71 69 64 71 74 76 83 87 87 84 85 83 80 82 74 70 69 69 69 68 65 62 61 59 58 59 59 56 55 55 55 54 53 54 58 62 62 63 63 62 57 45 42 41 41 45 47 46
66 65 63 65 70 67 69 73 69 75 81 85 93 95 89 86 79 76 80 76 73 69 66 64 64 64 63 64 63 62 62 64 65 65 64 64 66 67 66 64 63 63 67 71 66 59 49 45 43 42 47 49 46 40
60 62 65 62 62 65 73 75 74 75 83 89 90 88 86 79 73 75 75 69 66 62 62 64 64 65 64 62 62 61 62 64 67 70 72 74 76 76 73 71 68 72 73 66 57 52 47 44 44 50 49 45 38 31
61 57 58 63 65 68 71 72 69 72 79 83 85 83 77 76 72 69 66 63 61 61 62 65 67 69 68 66 65 66 66 68 72 76 78 80 80 80 78 78 77 71 63 56 52 48 44 49 53 48 43 35 30 26
65 67 69 67 68 70 76 82 83 83 84 81 76 71 71 70 69 66 64 64 63 63 65 67 70 71 70 68 67 69 71 76 80 83 86 84 81 80 78 71 67 63 55 49 46 46 53 51 45 42 33 30 27 25
85 86 87 88 89 90 90 86 80 79 77 74 72 71 68 65 63 64 65 66 68 71 71 71 71 71 72 71 72 74 79 83 87 88 88 85 77 69 63 61 52 46 44 46 53 54 48 45 40 33 30 27 26 24
96 96 96 95 93 93 93 94 92 88 84 80 76 74 73 73 73 72 72 73 75 75 74 74 73 74 75 77 80 85 87 91 93 95 89 83 75 62 55 50 47 50 55 57 51 47 44 39 33 31 28 26 24 24
98 98 98 98 98 97 98 97 94 92 91 91 90 90 88 87 84 82 83 82 80 77 76 77 78 80 84 88 91 91 94 97 97 92 84 75 66 58 53 52 56 58 53 49 46 43 38 34 31 28 26 25 25 27

GFSWCAN_prec_cthk_123.txt.gz
RH
88 91 89 80 90 98 98 83 57 56 60 61 58 66 76 88 80 70 61 56 52 54 59 56 79 88 87 80 80 71 65 62 43 49 48 49 48 50 53 53 57 54 58 58 52 59 74 80 86 94 92 92 93 91
98 94 94 97 98 99 98 87 65 54 53 50 50 54 60 64 64 58 54 52 51 54 72 86 94 90 84 78 72 67 52 45 38 42 46 42 44 51 46 53 43 52 48 59 64 72 79 83 86 91 97 96 95 93
99 98 97 97 98 98 98 98 89 70 58 53 52 53 55 56 56 51 54 62 82 97 97 95 94 86 76 71 65 55 45 37 43 47 42 46 46 40 45 55 58 55 55 62 68 73 74 78 86 96 98 97 96 92
98 97 97 98 98 99 99 98 98 94 88 83 81 76 78 77 87 92 94 93 90 89 90 91 85 77 73 58 42 36 40 39 36 36 39 41 42 42 55 57 61 61 62 71 80 88 91 94 97 98 97 97 94 92
98 98 98 98 98 99 98 98 98 98 98 96 94 93 91 94 92 89 86 87 83 75 86 88 78 70 51 39 36 39 34 34 34 39 40 40 44 42 44 48 53 53 61 66 82 86 95 96 97 97 97 97 96 93
97 99 98 98 99 99 98 98 97 97 95 92 88 88 87 87 85 78 81 86 80 67 60 74 74 69 55 55 45 38 38 42 41 41 38 42 44 46 53 57 54 60 63 67 78 89 94 97 97 97 97 96 91 85
98 98 99 98 99 99 98 97 94 93 89 86 85 84 83 79 82 74 71 68 62 53 53 68 65 66 61 45 43 43 43 44 39 36 37 38 40 46 49 50 53 60 64 72 78 89 96 97 97 96 91 85 84 82
98 98 98 98 92 89 86 82 77 76 79 87 83 77 67 57 52 57 65 55 53 57 54 71 74 64 56 51 49 49 46 35 37 41 39 46 47 51 54 49 54 61 69 79 86 92 95 95 91 86 82 85 81 76
98 98 97 96 89 81 77 76 81 82 74 70 63 52 50 53 60 62 56 55 44 49 57 62 63 64 60 63 54 48 40 42 37 46 46 47 58 54 54 52 57 64 72 88 90 93 95 93 90 85 84 85 79 69
97 97 90 86 82 82 77 73 75 65 55 51 56 58 58 59 61 57 50 37 42 48 56 61 59 59 57 56 54 43 44 43 46 50 45 49 59 55 49 55 58 64 70 76 80 85 87 87 85 84 85 80 67 55
95 92 90 83 82 88 81 77 70 52 47 44 54 65 63 55 54 49 48 48 53 58 64 65 60 56 57 52 47 47 48 47 54 52 54 54 56 51 51 57 64 66 69 73 76 78 78 80 80 82 78 61 50 45
97 89 82 81 81 78 81 79 58 52 51 57 59 59 57 56 54 53 56 55 52 58 64 66 62 57 56 52 48 49 50 53 63 56 58 57 63 50 56 67 69 72 71 75 74 75 75 77 77 70 54 50 44 38
90 85 81 78 80 79 68 64 63 65 67 66 56 53 52 49 57 58 65 63 66 61 61 62 62 54 49 48 50 48 53 59 55 61 57 66 55 53 61 69 75 73 70 72 76 75 73 73 72 61 51 40 37 35
94 89 77 69 71 70 78 78 74 69 69 67 63 62 64 65 62 66 64 60 54 57 61 61 53 49 47 50 52 52 55 52 57 60 59 61 56 60 64 69 73 74 74 76 79 79 79 76 63 51 39 36 37 33
94 89 86 82 76 77 76 66 60 56 58 62 67 73 68 68 68 63 59 58 69 67 59 49 46 46 49 52 53 52 56 57 52 60 70 60 58 65 70 73 75 74 78 80 81 79 73 61 46 35 38 36 35 31
87 85 79 76 75 70 66 59 55 54 65 70 69 69 75 73 67 60 66 70 68 55 47 41 43 48 50 52 53 54 53 54 59 62 61 63 69 72 71 72 75 77 79 80 78 71 51 39 37 37 36 34 32 32
79 79 80 76 74 71 65 60 62 61 64 70 76 79 77 73 73 74 69 62 53 51 48 43 46 51 47 50 53 54 61 63 62 59 62 67 70 72 74 71 72 78 79 77 72 44 39 37 34 33 31 31 32 35
85 73 69 70 71 64 56 56 61 72 76 79 79 86 84 77 71 67 62 55 52 47 47 44 40 46 52 51 56 57 58 61 64 62 66 71 73 73 76 72 72 72 71 63 47 40 37 34 32 35 37 35 38 41
78 80 71 62 61 61 62 66 68 78 78 82 81 85 79 72 66 61 56 53 51 50 49 49 50 52 54 54 56 56 57 62 67 68 70 73 73 74 71 71 69 69 67 58 49 45 42 40 41 44 45 42 49 51
70 72 73 69 61 56 59 66 70 78 85 88 86 80 71 69 67 64 60 55 52 53 51 54 57 56 56 56 57 60 60 67 70 72 74 77 77 77 75 72 71 68 66 59 55 54 53 50 49 53 55 57 59 61
64 61 62 67 70 73 78 78 86 87 85 80 79 74 72 70 65 63 60 58 56 58 58 59 56 56 55 56 59 61 64 69 73 77 76 77 78 78 74 73 71 68 64 59 55 53 52 55 57 57 55 55 55 56
58 54 51 53 65 72 81 83 82 78 77 74 69 67 68 68 66 64 63 63 65 67 65 64 61 60 61 63 61 64 66 68 66 67 72 74 73 71 67 68 68 64 60 58 59 58 56 58 58 55 56 56 56 56
55 50 48 53 56 60 67 69 71 69 68 65 63 60 57 56 56 58 65 64 66 62 62 62 63 63 65 64 65 67 68 69 70 69 66 66 63 61 58 57 57 55 56 55 56 56 58 54 52 54 55 56 58 61
48 44 45 52 57 59 56 60 60 60 60 60 60 61 57 56 52 54 64 65 62 61 62 63 64 65 66 66 66 65 63 64 68 67 63 60 58 58 57 57 57 58 60 60 60 57 53 52 53 55 58 60 63 68
46 46 48 51 56 55 51 55 56 52 53 51 51 55 56 53 54 58 62 64 65 63 63 64 65 66 67 68 66 63 61 60 58 58 58 59 59 59 60 60 60 62 63 64 63 60 58 57 59 61 64 70 68 61
50 48 51 51 57 58 54 51 54 57 56 55 53 53 52 53 58 61 60 66 66 66 68 68 70 71 70 71 70 68 66 65 65 64 64 63 64 65 66 66 66 68 69 69 67 66 64 64 66 64 65 62 55 55
51 51 49 50 53 53 55 54 51 55 59 61 60 60 60 63 65 62 67 70 70 70 70 72 73 73 71 69 70 72 72 73 73 71 66 64 63 65 68 72 74 71 72 75 72 69 73 70 67 66 57 51 56 56
51 50 51 51 54 54 56 55 55 56 62 61 65 67 70 69 70 68 72 80 81 81 80 80 77 70 67 66 68 70 70 71 70 68 66 66 67 68 69 71 75 77 77 75 76 76 69 64 57 51 56 58 54 45
49 48 49 49 50 50 52 57 57 56 58 65 70 73 73 73 71 78 80 79 83 80 76 75 68 66 64 63 65 68 70 72 74 74 75 74 74 75 77 76 77 80 82 81 74 69 63 58 57 59 56 49 43 39
50 48 51 52 53 50 54 55 57 58 59 60 64 64 71 77 79 79 85 84 85 84 80 76 73 68 65 67 68 70 72 73 75 77 77 76 77 78 80 83 86 85 78 72 64 59 57 59 58 52 45 41 38 35
50 50 53 54 56 57 55 57 59 61 64 64 62 68 74 79 80 81 81 81 81 80 79 76 72 71 70 71 72 74 76 78 79 79 78 79 81 84 86 84 80 74 66 60 58 60 59 54 49 43 40 37 34 32
69 72 75 78 81 82 85 86 84 80 76 72 72 73 74 75 75 72 70 71 71 70 68 68 67 69 71 72 74 77 80 81 81 80 81 85 89 88 83 77 69 62 60 61 61 55 51 46 42 40 37 34 32 29
90 91 92 92 92 93 95 97 95 95 91 80 72 70 71 71 69 64 63 65 66 64 66 68 71 75 78 81 82 83 83 83 84 86 85 87 86 81 74 66 61 62 61 56 53 50 45 42 39 36 33 31 29 28

GFSWCAN_prec_cthk_129.txt.gz
RH
81 70 57 55 53 48 46 49 51 51 44 35 30 37 44 54 48 62 54 58 56 58 54 55 58 57 72 63 69 68 77 75 73 72 74 77 74 67 64 74 72 68 84 78 78 75 70 59 65 76 75 71 75 76
74 72 64 49 45 46 44 42 39 34 27 22 22 36 50 52 53 58 58 52 57 65 60 63 57 51 67 86 79 70 63 63 67 71 76 76 76 77 74 93 90 95 77 78 76 75 69 70 72 68 64 62 65 71
64 56 55 56 56 59 61 62 66 63 55 46 38 38 40 40 42 49 45 53 67 70 61 67 64 64 69 82 82 66 63 58 58 77 79 80 77 69 73 82 85 83 75 77 78 76 72 68 66 60 62 69 74 79
58 59 57 66 75 83 88 91 96 95 85 75 64 57 49 43 40 45 48 48 59 70 72 76 65 87 78 82 76 60 58 75 86 86 86 83 80 78 82 77 74 69 63 64 67 63 57 58 61 66 71 78 82 88
62 70 80 88 94 97 98 94 90 88 88 72 65 63 62 64 61 58 51 49 54 58 75 83 81 81 82 74 65 58 85 90 84 82 82 84 80 77 72 69 69 63 55 61 54 46 48 53 56 65 75 85 91 94
88 90 96 96 98 99 99 99 99 99 98 98 82 66 70 82 89 94 99 96 87 91 86 92 90 86 78 68 76 93 94 87 82 79 76 71 69 62 63 66 59 55 53 49 42 47 48 54 61 72 82 89 94 96
92 94 96 98 99 98 99 92 94 98 99 90 77 85 93 85 89 93 85 79 96 99 93 97 95 87 82 85 90 88 83 75 69 70 64 62 65 59 61 60 48 51 46 43 48 47 57 62 65 78 86 92 96 95
97 98 98 99 98 99 99 88 81 98 98 99 94 95 99 98 97 95 91 92 98 92 87 89 87 88 87 86 89 85 81 76 68 65 65 65 56 60 55 46 48 47 45 47 50 50 57 66 75 87 90 92 93 93
98 97 97 98 98 99 99 98 88 84 95 96 96 96 93 96 96 95 93 92 91 82 80 87 93 97 89 89 82 78 73 73 67 67 59 61 66 52 41 42 44 44 44 49 52 57 66 75 81 86 85 84 85 84
97 98 98 98 98 98 99 99 98 96 82 74 78 84 95 92 86 86 86 83 88 92 87 87 81 92 85 82 79 71 74 68 64 58 62 67 61 49 47 47 45 44 48 53 57 65 71 75 81 83 80 83 83 80
96 96 97 97 98 97 98 98 96 88 83 81 85 92 96 94 87 80 79 78 83 92 87 86 82 83 81 75 77 65 60 61 69 64 56 50 55 48 47 47 44 43 50 59 63 66 69 72 74 77 76 79 81 71
92 93 95 97 94 91 90 89 84 77 79 85 85 88 83 75 69 68 77 76 75 89 83 78 79 71 79 66 60 62 67 69 73 50 51 57 53 47 48 50 47 46 51 58 63 66 70 73 72 73 76 78 75 61
91 96 87 89 89 80 74 69 67 68 75 75 67 65 65 68 71 68 74 74 73 76 72 69 76 73 72 62 67 64 56 58 53 58 55 57 53 53 54 47 48 55 59 63 66 68 69 71 71 74 77 73 57 54
90 83 72 68 66 62 60 58 62 65 64 66 66 71 69 72 75 76 69 60 67 73 77 74 69 66 65 62 56 53 56 52 57 55 55 57 53 52 48 53 58 60 62 66 68 69 73 73 75 79 76 62 55 48
85 75 63 58 60 64 68 65 55 48 54 65 65 72 72 71 75 73 61 61 68 73 65 67 64 59 61 61 56 49 51 50 52 54 60 58 54 52 51 57 60 62 65 70 74 79 85 85 84 83 72 60 52 43
84 72 58 58 59 64 59 59 52 55 63 69 75 75 73 75 74 70 72 72 72 68 63 61 61 58 57 52 50 47 47 52 56 56 61 57 52 53 54 57 62 69 75 78 81 85 87 87 86 78 63 54 43 35
72 77 75 68 66 61 58 54 57 65 72 77 87 79 79 81 83 82 80 75 74 72 65 60 58 59 52 49 50 55 55 55 55 50 53 51 52 55 59 63 67 72 74 79 83 87 89 88 81 63 48 39 35 35
74 74 74 69 67 64 62 66 72 79 88 89 85 80 81 83 83 87 83 76 69 62 58 56 50 50 51 52 51 49 50 48 47 48 52 53 57 62 65 69 73 76 75 76 79 81 80 76 63 44 38 36 33 31
67 69 68 63 59 58 65 71 73 85 87 82 80 81 83 84 86 80 76 75 67 59 52 51 53 54 53 53 47 46 46 48 52 52 56 58 61 65 67 71 73 74 74 75 74 72 69 63 51 43 39 36 38 44
67 65 63 59 56 59 69 77 78 77 86 85 79 79 75 76 79 77 76 69 59 51 52 54 54 51 47 45 45 44 45 48 50 54 59 61 63 66 71 74 75 76 76 76 75 72 66 62 58 56 54 51 55 59
61 61 61 60 59 62 71 73 77 85 86 86 85 83 82 81 79 74 65 59 54 59 57 55 52 50 49 45 45 46 48 49 52 55 58 61 66 70 74 78 78 79 77 77 75 70 66 62 64 62 60 57 56 54
54 55 55 55 58 65 74 76 77 77 84 90 88 81 81 82 76 71 65 61 65 63 59 54 53 51 51 50 49 50 51 53 57 58 61 64 70 76 76 74 75 73 73 74 70 64 59 57 56 56 57 58 58 58
58 54 50 55 59 68 77 75 75 77 83 84 78 75 73 70 69 66 69 69 68 67 63 60 58 57 55 54 53 52 52 52 54 57 60 63 67 70 69 69 70 71 70 69 69 65 62 61 62 64 68 69 65 62
52 63 63 63 66 76 73 76 76 77 75 76 77 71 66 64 65 67 69 68 67 66 65 65 62 59 57 57 57 56 55 55 55 55 58 63 67 69 72 71 69 69 68 67 68 68 68 70 72 74 75 70 68 69
42 56 60 64 69 78 82 81 78 76 75 72 73 73 66 64 70 70 74 72 68 66 65 63 61 60 57 58 59 58 58 57 57 57 61 61 63 62 64 67 67 68 68 67 68 69 71 73 75 73 71 72 73 79
49 54 59 60 63 61 61 64 65 64 64 66 68 66 62 61 65 71 68 67 65 63 63 64 64 62 62 61 61 61 61 60 61 63 67 68 69 70 71 71 70 69 69 70 71 73 74 72 70 73 75 80 82 76
51 51 51 53 51 50 52 53 54 56 59 61 57 57 58 62 63 62 59 57 61 63 64 65 65 65 64 65 65 64 64 65 67 69 72 74 75 77 77 78 78 76 76 76 76 73 71 74 75 78 81 78 69 62
48 48 48 46 47 47 48 52 54 58 62 61 58 58 60 60 63 57 54 55 58 62 67 68 69 70 71 72 72 72 71 69 69 70 70 71 72 73 74 75 77 77 77 78 78 78 76 78 80 73 66 62 63 61
45 46 40 43 44 44 48 52 55 53 56 56 63 64 58 57 56 56 58 62 65 69 73 76 77 77 75 74 76 75 68 66 67 68 70 70 71 73 75 78 80 81 82 81 80 80 81 74 67 62 63 62 55 49
45 42 42 39 42 47 46 47 46 45 45 46 49 54 59 61 62 63 63 65 68 73 77 80 84 89 87 85 83 76 71 70 70 72 71 69 71 73 77 82 85 85 83 82 80 72 67 64 65 63 58 51 47 43
45 43 43 43 47 49 48 45 43 43 44 45 46 50 53 54 58 61 64 66 68 71 75 79 81 85 88 91 94 90 81 77 77 77 77 76 75 78 81 86 89 88 82 74 69 67 69 65 60 52 49 44 42 40
47 46 50 51 55 56 58 60 63 65 66 68 67 65 62 60 57 54 56 58 65 73 80 84 84 84 85 82 81 81 81 81 81 79 76 78 83 90 93 92 86 77 72 69 70 67 61 55 50 47 44 41 38 36
76 76 76 80 84 84 86 86 86 87 88 88 88 83 79 75 73 71 72 73 75 78 79 80 80 80 79 78 79 79 77 77 78 83 91 95 96 93 88 83 78 72 72 69 63 58 52 50 46 43 40 37 36 33

GFSWCAN_prec_cthk_132.txt.gz
RH
55 58 60 59 59 60 61 58 52 54 59 66 73 74 75 71 75 79 65 72 76 71 54 45 47 51 50 52 58 59 73 67 77 93 88 86 66 59 75 76 77 79 81 74 82 90 71 60 64 67 63 64 59 58
83 80 71 65 64 63 61 59 56 56 62 64 69 72 71 64 65 76 67 69 75 73 67 61 46 44 58 66 63 69 72 72 76 78 72 76 74 76 70 79 80 84 80 84 85 78 74 75 69 72 70 65 61 58
70 73 73 72 70 67 62 56 54 54 58 66 68 69 69 66 61 64 65 70 74 76 74 62 54 52 51 60 67 81 94 83 69 67 71 80 80 74 81 84 91 96 89 94 92 81 79 83 85 66 55 51 54 62
67 68 64 61 59 54 50 48 43 44 48 54 60 63 64 63 55 53 58 59 68 78 76 66 47 53 57 55 51 74 86 91 78 66 81 86 86 82 85 86 85 85 89 87 81 80 81 69 56 54 53 53 56 68
57 53 49 61 71 74 73 72 71 72 73 61 49 53 56 54 43 43 58 66 74 76 73 60 54 44 50 53 67 79 96 85 74 78 92 91 85 85 88 92 90 79 77 72 70 61 54 44 44 48 51 59 67 74
55 71 73 73 75 75 76 79 85 87 90 91 81 48 45 41 40 66 84 82 70 78 79 75 56 57 62 68 94 91 94 82 74 93 92 85 81 86 93 89 75 66 66 58 55 52 45 42 46 49 55 64 70 82
74 76 78 83 87 95 98 99 99 98 98 93 86 71 49 46 53 61 61 46 51 74 77 86 72 61 88 98 95 89 78 79 93 94 88 86 84 84 85 82 64 57 51 47 49 49 47 47 51 56 62 69 80 88
92 91 90 95 98 99 98 99 98 94 77 74 80 83 82 58 58 64 54 44 51 74 78 83 84 77 89 89 93 86 85 90 89 85 81 83 79 77 76 61 58 48 44 45 45 45 46 49 56 64 72 78 87 92
92 91 92 95 98 99 99 98 98 91 76 70 81 90 95 90 79 59 59 60 57 73 80 92 94 91 92 92 88 87 89 91 86 84 81 78 80 74 59 57 44 42 42 42 45 50 50 55 62 69 77 83 89 93
93 91 91 98 99 99 95 97 98 97 86 82 89 96 97 96 96 100 98 99 98 99 97 88 86 88 80 83 90 90 92 90 87 78 74 83 73 63 57 44 45 46 43 41 48 51 56 62 67 73 76 80 84 85
95 95 98 99 99 96 93 93 96 97 97 92 93 95 97 99 98 98 98 98 98 98 90 83 77 78 86 87 89 87 87 81 79 74 72 74 74 59 46 47 47 44 39 44 52 54 61 65 67 70 71 74 80 80
98 97 97 96 91 84 81 86 89 87 90 88 92 98 97 88 83 89 93 89 85 86 82 83 84 84 89 87 86 84 80 81 78 68 70 73 48 37 42 45 46 43 45 50 56 61 65 66 69 74 74 77 79 79
95 91 90 90 85 81 88 88 89 86 83 74 69 70 71 73 79 81 86 81 82 73 77 79 89 91 91 83 81 82 72 72 76 83 71 48 42 44 46 49 46 47 49 52 57 62 65 67 69 70 73 75 79 75
90 82 78 79 80 79 92 85 81 74 70 68 65 71 71 74 78 75 70 70 75 76 80 85 91 89 83 81 74 67 71 76 74 63 50 48 47 49 46 47 50 54 57 59 59 62 66 70 72 74 79 84 80 64
72 70 67 70 70 77 80 78 68 64 65 69 71 79 79 79 80 73 70 70 75 76 73 81 81 75 77 74 72 68 67 63 57 46 46 47 49 49 49 51 53 56 56 58 61 66 71 78 82 84 86 84 71 60
68 64 60 68 66 70 68 63 60 65 69 75 80 84 87 85 80 71 69 72 75 74 78 73 71 73 73 70 67 58 54 48 45 47 53 50 50 50 50 50 55 58 62 67 72 77 84 89 91 92 91 80 66 58
59 65 68 68 61 58 52 53 57 69 76 78 84 85 82 83 77 75 71 81 79 74 75 70 67 66 64 65 65 57 49 48 46 50 54 51 49 50 51 53 57 61 67 72 77 83 88 91 93 92 86 71 58 49
62 61 62 61 61 57 54 60 65 76 82 83 86 84 84 81 82 79 79 81 73 69 63 63 63 65 65 62 50 48 48 47 46 48 50 49 51 52 55 57 61 64 70 75 78 81 82 85 86 84 70 52 44 40
67 65 63 61 61 62 66 71 72 84 88 86 88 90 84 88 88 81 76 75 71 65 65 65 64 63 57 50 45 46 45 45 45 47 48 49 52 55 59 63 66 69 72 74 77 79 80 80 76 68 57 51 47 45
65 64 60 60 59 62 71 78 79 82 85 89 90 90 90 92 89 83 75 69 64 64 67 65 63 59 50 43 43 43 45 47 48 50 52 53 56 59 62 64 68 70 72 75 76 78 77 75 72 64 57 53 52 55
62 60 55 52 55 62 74 77 77 81 83 89 90 89 86 81 78 77 75 71 67 65 66 63 55 50 47 45 44 44 45 47 48 50 52 56 59 61 63 67 71 73 74 75 74 72 72 67 65 62 53 48 51 53
59 58 56 57 61 69 76 78 79 80 81 84 79 77 79 81 80 78 72 67 72 68 63 59 52 47 45 45 47 49 50 52 52 51 55 59 63 66 68 73 76 74 71 70 67 66 66 66 64 64 65 65 67 71
52 53 52 55 62 70 79 77 76 78 84 86 85 85 85 83 81 77 75 72 71 69 64 58 54 53 50 49 49 50 51 52 52 51 52 57 61 64 66 67 69 69 68 69 68 67 67 68 71 71 73 73 74 74
50 53 57 62 66 74 72 75 76 79 81 82 78 76 78 77 75 75 74 73 71 69 65 62 61 59 55 54 55 54 52 51 50 51 53 55 58 60 63 66 68 69 69 70 71 70 69 70 72 74 76 78 79 77
54 64 62 69 69 69 75 76 76 75 77 76 74 72 71 70 73 74 73 73 70 68 69 67 64 64 60 56 56 56 55 55 55 57 58 59 59 61 64 66 67 69 70 71 72 71 72 74 76 79 80 78 76 74
56 62 63 71 79 78 79 80 80 79 74 75 78 68 65 69 73 74 73 73 71 71 72 70 68 66 63 60 60 60 59 60 62 63 63 64 67 70 72 75 77 79 81 81 81 82 83 84 83 80 79 78 80 85
54 56 58 61 62 62 64 62 62 66 71 70 65 67 69 72 71 69 68 66 68 70 69 68 68 66 65 65 66 66 66 66 67 66 67 70 72 75 75 75 77 78 80 81 81 82 83 81 81 82 81 84 83 75
49 47 47 48 47 48 52 56 58 62 63 62 57 59 61 63 63 60 59 59 59 63 67 69 69 68 69 72 73 73 73 72 69 67 70 73 74 74 72 71 72 74 77 80 82 82 82 82 83 84 79 71 69 67
44 43 40 42 42 46 50 52 52 54 57 57 58 56 54 52 53 55 55 55 56 59 62 65 70 73 73 72 72 72 74 75 72 70 71 71 72 73 74 74 74 75 78 82 87 89 88 86 76 66 67 69 65 58
43 42 39 40 44 45 48 47 45 43 44 45 48 53 54 55 56 56 56 57 60 65 70 71 73 76 76 78 80 83 83 86 84 78 74 74 76 80 81 79 78 79 84 89 90 88 80 67 68 70 65 59 52 49
43 41 41 42 44 45 43 41 40 40 41 41 43 44 48 49 50 53 56 59 62 64 67 70 75 79 81 81 86 92 93 95 95 90 84 83 83 84 84 81 83 89 94 91 81 68 69 71 66 60 54 50 47 43
42 43 47 46 47 46 48 51 55 58 60 62 65 65 64 62 59 55 51 51 57 61 63 67 73 80 83 85 86 89 90 88 88 86 86 87 86 84 86 91 97 96 86 71 72 73 67 61 56 51 49 45 43 41
62 60 65 69 77 79 80 80 81 81 82 82 83 84 85 81 78 72 68 65 61 58 62 71 78 83 86 89 90 88 86 86 86 85 84 86 90 96 98 96 89 78 77 76 70 63 58 54 50 47 44 42 41 39

GFSWCAN_prec_cthk_138.txt.gz
RH
77 81 79 84 92 95 91 88 73 72 74 79 82 82 82 78 83 81 68 62 69 79 74 63 57 48 46 48 52 48 55 60 60 63 62 58 60 51 49 47 57 71 81 84 91 96 92 81 82 85 82 80 77 74
66 71 73 72 73 78 84 83 71 66 67 65 68 77 79 83 90 93 82 76 73 77 80 79 65 62 57 50 55 60 57 60 67 64 62 61 64 63 58 60 53 72 64 82 89 83 80 84 86 84 79 83 80 76
58 61 65 68 71 70 71 76 75 74 63 61 57 66 77 77 86 97 98 95 95 90 87 91 86 84 76 68 58 53 55 55 59 74 94 86 80 70 71 62 59 63 67 84 88 79 84 88 90 85 91 87 74 57
63 56 57 66 70 71 73 70 69 68 60 52 58 57 65 76 81 95 99 93 95 96 94 79 89 89 90 88 76 75 67 65 66 68 81 80 80 75 76 69 62 64 82 90 90 85 86 82 84 88 79 76 65 52
72 71 68 63 73 82 79 76 74 73 68 58 57 59 60 69 84 99 98 96 89 90 92 88 83 77 85 90 81 67 58 53 66 77 80 81 78 83 83 83 64 73 85 93 89 86 90 80 75 69 68 67 53 47
78 76 77 74 72 70 70 74 77 76 75 69 67 66 70 72 88 99 99 97 96 92 89 85 76 84 81 82 73 60 58 58 62 83 86 82 80 86 91 80 60 76 82 83 84 86 83 73 68 64 65 58 48 51
71 74 78 80 82 86 87 82 78 77 78 79 80 73 71 76 93 99 97 84 80 79 79 77 72 79 78 72 67 56 57 59 65 77 78 81 89 96 90 69 75 84 83 88 88 85 73 66 61 65 62 49 50 57
62 61 64 69 73 79 81 85 88 83 80 82 84 78 80 87 91 94 91 79 82 85 82 81 80 84 82 87 78 65 62 69 70 70 72 81 95 97 80 64 77 81 82 83 81 69 64 61 61 58 53 51 56 63
66 71 74 73 67 67 73 79 82 85 88 87 87 83 88 96 97 95 95 92 91 85 75 74 83 81 79 78 83 71 67 75 76 82 80 96 95 76 65 75 77 77 73 73 70 69 58 59 51 51 54 55 60 68
83 81 84 85 85 86 84 82 85 94 95 94 99 99 93 91 92 93 96 90 93 86 78 73 81 92 84 82 76 75 72 82 92 84 90 91 71 66 74 75 75 74 72 64 67 58 53 49 50 55 57 60 65 73
98 98 98 97 96 92 92 92 94 98 99 99 96 92 88 90 94 96 92 91 83 94 76 68 69 80 81 80 84 87 91 94 94 85 91 83 68 67 72 73 74 73 69 65 57 48 42 46 50 54 58 64 71 76
99 99 98 98 98 98 98 98 97 96 93 87 69 88 91 94 95 95 89 82 84 88 72 61 60 76 81 91 98 98 98 96 91 84 87 76 65 66 61 60 63 68 68 53 46 41 43 48 53 59 64 68 71 74
98 97 76 68 81 98 98 96 94 93 91 88 86 88 79 84 93 81 75 79 87 76 59 47 57 71 83 85 98 98 97 93 84 88 81 72 70 62 58 61 67 59 47 46 43 46 51 54 58 62 64 66 69 72
98 94 68 61 83 92 86 81 88 86 80 72 79 82 71 82 73 64 53 58 62 72 51 39 45 61 80 84 88 92 85 89 91 88 82 72 62 58 55 54 48 49 46 41 44 49 53 57 60 64 69 68 68 70
94 90 83 77 76 77 79 78 71 69 64 80 76 63 71 67 63 57 68 63 56 66 58 56 64 70 82 88 88 88 92 86 80 79 71 59 53 49 48 49 50 44 44 45 50 55 58 61 62 63 67 72 75 80
87 84 83 91 94 91 80 78 76 75 80 86 87 70 65 59 62 64 65 60 64 78 77 81 91 95 96 94 92 86 83 76 70 58 49 50 52 52 52 50 46 48 48 49 50 53 57 63 69 74 80 84 88 92
80 76 76 78 74 79 88 85 84 82 80 83 80 73 72 70 65 69 68 68 74 77 84 86 89 88 89 90 88 82 77 74 72 54 54 52 52 51 49 50 51 50 50 53 57 62 65 69 72 77 81 85 89 93
75 68 69 73 70 69 71 74 79 88 91 89 87 85 84 84 86 86 85 86 85 84 82 84 85 89 89 89 85 81 77 66 56 49 53 55 54 51 52 53 50 52 53 57 62 64 66 70 75 80 84 87 88 87
72 67 66 65 67 66 73 81 84 93 95 93 91 90 90 89 91 88 90 92 90 90 89 88 85 86 83 81 79 74 69 60 53 54 55 53 52 51 53 51 52 54 58 61 65 67 70 73 77 81 83 85 86 78
62 62 63 62 61 66 77 86 89 94 95 96 96 95 90 86 87 89 91 93 90 89 89 87 81 76 73 65 63 60 58 54 52 53 54 54 53 52 53 57 58 61 63 65 66 70 73 77 79 79 80 80 74 65
59 61 61 58 60 66 76 80 89 97 98 98 97 94 93 91 95 93 91 89 88 91 87 82 77 70 68 62 61 56 50 48 51 53 54 55 55 58 60 61 63 64 65 67 69 73 75 74 76 74 70 67 65 63
57 58 60 62 67 73 79 86 87 87 93 97 97 95 97 97 96 94 87 82 88 86 81 77 72 66 63 61 59 56 53 51 52 52 54 55 57 59 61 63 65 67 70 73 73 70 67 67 67 66 65 63 63 62
51 52 55 59 64 71 82 84 88 89 93 91 88 88 89 88 88 81 83 85 84 78 78 77 75 69 64 62 60 56 52 50 50 52 55 57 59 62 64 67 69 70 70 67 65 66 66 64 64 67 68 68 72 77
48 50 57 62 65 71 72 77 81 83 86 86 87 90 91 90 87 83 83 84 84 83 80 75 70 67 65 61 58 55 53 52 53 54 58 60 61 63 64 66 66 65 63 62 64 66 67 72 77 81 85 87 90 92
48 59 60 68 68 69 73 74 75 75 81 83 81 84 83 81 82 85 83 83 83 81 79 75 72 69 67 64 60 58 55 54 53 53 55 56 57 58 60 60 61 61 62 66 71 74 78 81 83 84 84 85 86 88
59 66 67 69 72 70 74 78 79 80 80 79 78 78 79 80 82 85 85 83 81 77 75 75 74 72 69 65 61 61 61 61 60 60 61 62 63 63 63 64 65 68 70 74 78 78 77 76 78 80 82 83 85 88
60 68 71 71 70 69 73 75 76 76 78 76 75 77 77 77 78 75 75 77 78 77 75 74 74 74 72 69 68 69 70 69 69 69 68 68 68 68 69 70 71 74 76 77 76 78 81 82 83 83 84 87 90 95
59 66 72 75 75 74 77 79 80 80 78 76 74 75 76 72 70 68 70 71 71 71 72 75 76 77 77 76 74 74 74 74 74 74 74 73 72 70 69 69 70 74 76 79 82 84 86 88 88 87 89 93 95 91
51 50 48 55 58 62 62 62 63 66 66 65 67 68 65 64 64 62 62 62 63 65 68 70 73 74 75 75 75 75 77 78 78 77 76 75 75 73 71 71 74 77 81 83 84 86 87 87 86 89 94 86 79 78
47 46 45 45 45 47 48 49 50 52 53 54 52 51 50 50 49 50 50 51 52 54 56 58 61 65 68 70 72 73 73 72 72 75 78 81 83 86 87 89 90 86 86 88 89 90 88 89 88 79 75 73 67 62
42 42 44 46 45 48 48 46 43 43 42 42 42 41 42 43 44 45 46 47 49 52 57 59 62 65 67 68 70 73 75 77 80 81 82 85 87 92 92 91 91 92 92 92 92 91 88 79 74 73 67 62 56 50
43 44 45 44 43 44 45 44 42 40 40 40 41 44 47 47 49 47 46 48 48 47 51 55 59 62 65 68 70 73 73 74 79 85 90 89 89 91 93 93 93 93 94 94 94 82 76 76 70 63 59 53 49 47
44 42 42 41 45 46 48 49 54 57 60 63 65 67 68 69 70 69 69 69 68 66 61 58 54 54 57 61 63 66 70 79 86 89 92 93 94 94 94 93 94 96 98 90 79 79 74 68 62 56 51 49 47 44

GFSWCAN_prec_cthk_141.txt.gz
RH
84 90 91 97 97 99 98 99 98 97 97 94 91 87 88 89 81 82 74 76 81 83 80 73 65 56 52 48 47 48 56 58 59 58 55 52 53 46 47 45 42 41 55 65 71 77 69 65 79 88 85 86 87 89
71 79 89 94 96 96 98 98 97 93 87 82 82 75 79 86 89 96 88 79 73 76 79 72 72 66 58 53 52 56 56 57 60 60 58 54 51 52 47 55 49 56 50 57 60 59 63 73 78 78 84 86 85 91
72 71 77 85 89 94 95 95 88 79 71 63 60 64 72 84 86 89 90 91 86 77 70 74 71 77 70 67 59 59 61 63 64 64 70 80 79 78 69 60 60 58 58 61 63 58 71 80 86 86 90 94 92 90
73 75 74 76 79 82 91 91 88 83 79 70 60 55 61 64 70 82 86 93 92 88 83 64 68 75 76 78 76 67 58 58 63 68 72 73 76 72 71 65 59 58 65 66 63 63 79 79 87 87 86 86 81 70
51 54 67 74 77 75 80 85 84 85 81 70 62 58 51 48 62 69 71 87 99 99 93 83 71 76 81 84 90 91 86 75 78 79 75 70 63 75 71 67 58 61 73 75 64 70 82 82 89 86 80 74 70 65
72 64 53 53 63 71 69 71 75 78 78 74 72 62 54 48 60 74 80 93 95 99 98 93 87 82 79 81 84 86 87 98 83 73 73 69 63 65 73 63 49 57 71 70 74 79 84 89 88 79 71 72 66 64
72 71 72 68 62 59 67 76 73 68 67 69 68 65 56 54 63 67 79 85 89 99 97 93 85 78 82 83 82 82 85 88 82 70 65 60 61 80 73 61 49 68 73 70 78 79 86 90 89 76 71 68 67 55
68 69 69 74 74 70 69 74 74 71 75 78 73 70 72 76 81 82 90 94 97 98 97 92 83 76 74 79 84 86 86 86 79 69 61 57 62 78 73 47 66 70 74 75 78 81 84 83 76 73 65 65 55 52
63 68 72 74 76 76 75 73 73 79 82 87 90 96 98 93 83 86 96 99 99 96 92 79 73 63 68 79 85 91 96 87 73 66 60 66 64 69 49 64 69 68 71 74 78 78 78 74 75 65 57 51 54 55
64 64 65 71 77 83 89 94 95 90 89 95 99 98 94 90 81 98 98 98 98 93 81 70 61 53 71 85 84 88 93 90 83 76 78 73 57 43 53 67 67 66 73 76 80 80 71 74 64 53 50 54 54 56
82 78 73 69 68 79 85 87 94 97 98 98 99 96 92 86 95 99 98 96 87 80 67 57 46 50 76 94 97 96 98 93 81 65 73 72 57 53 65 68 62 68 75 82 83 76 71 63 46 47 54 54 57 62
95 90 93 95 86 71 76 80 88 91 94 95 89 94 97 96 97 95 90 79 68 54 58 61 49 49 75 89 92 95 90 96 89 76 84 71 55 60 60 58 59 68 77 84 81 75 58 44 46 51 53 58 63 68
88 95 97 97 97 89 76 76 79 80 91 94 89 89 85 82 84 71 69 67 56 49 50 59 69 66 81 81 85 98 97 93 87 89 74 63 66 66 66 59 61 67 78 81 69 52 45 45 51 55 58 61 64 67
88 87 97 98 97 94 78 77 76 81 83 80 78 86 71 67 61 59 47 41 47 63 80 81 88 81 76 79 88 97 97 95 88 81 70 73 72 67 66 67 70 73 67 56 50 46 48 52 53 57 59 61 65 67
65 79 92 95 94 86 80 76 76 77 75 78 85 65 62 50 51 41 35 52 63 70 81 82 80 72 74 87 90 88 89 83 75 71 71 67 62 61 61 62 56 51 51 44 43 48 52 55 57 59 62 63 64 69
67 72 81 83 84 81 72 70 71 74 72 70 86 64 57 50 66 55 59 64 58 61 70 73 72 71 68 71 80 78 74 68 68 73 67 61 56 58 62 60 58 50 46 47 52 54 56 56 57 59 63 68 72 76
69 72 76 71 67 65 68 71 78 84 83 90 73 56 52 53 57 52 64 75 72 79 90 88 87 85 82 81 81 78 79 75 79 76 70 59 60 64 59 57 50 49 49 49 51 53 56 60 62 64 67 71 75 80
84 87 81 76 79 82 85 84 85 87 94 91 84 63 70 73 66 64 70 78 82 86 87 87 87 95 93 91 88 87 87 85 83 76 61 54 60 61 57 54 54 54 53 55 57 60 62 62 64 67 71 75 79 82
83 90 94 92 85 83 89 92 98 98 92 97 96 92 90 88 85 81 85 95 96 96 95 95 94 94 93 92 90 86 81 78 71 64 59 57 59 56 55 57 57 58 58 58 61 64 66 67 69 71 75 79 80 80
81 81 86 94 95 96 97 98 98 98 96 93 96 94 93 94 94 96 98 98 98 98 97 94 92 85 80 79 76 75 75 72 69 63 60 59 57 55 55 55 56 57 59 61 65 68 68 69 71 73 75 76 76 75
74 82 90 93 95 92 93 98 98 98 98 98 98 98 98 98 97 98 98 98 98 98 97 96 91 83 76 71 71 71 67 66 63 60 57 57 56 55 54 55 59 62 64 67 68 69 71 73 73 72 70 71 68 64
67 69 68 70 74 83 91 96 96 97 97 97 96 94 94 94 94 96 97 96 95 93 91 89 83 79 71 71 68 65 64 59 57 56 57 57 56 58 60 63 66 67 68 68 69 72 74 71 67 67 66 63 63 63
61 63 66 70 72 78 86 90 92 94 98 96 97 96 93 96 97 94 96 94 94 92 89 85 80 76 71 70 67 65 63 61 59 58 59 59 60 62 64 65 67 68 69 72 72 70 66 64 62 61 63 67 70 71
52 58 65 70 75 83 86 89 90 89 92 94 95 96 97 96 93 91 91 91 89 87 82 80 78 77 76 70 64 63 62 60 58 57 58 59 60 62 63 65 67 68 68 68 66 63 63 63 65 70 73 75 74 78
51 63 66 72 73 77 81 86 90 89 93 90 90 92 93 91 90 90 88 87 87 85 84 83 82 78 72 67 65 64 62 61 61 60 59 60 60 63 64 63 64 66 68 66 64 65 67 71 75 77 76 77 80 82
60 67 69 73 76 74 77 83 85 88 87 86 88 89 89 90 87 86 87 86 85 86 84 82 80 77 72 69 67 67 66 65 63 61 62 64 66 66 68 69 69 69 70 72 72 73 74 76 77 79 84 86 88 89
60 71 72 73 74 73 77 78 79 78 80 79 80 79 79 80 82 80 82 85 86 86 86 84 82 80 78 75 70 68 68 68 69 70 70 72 73 74 75 76 76 75 75 76 76 77 79 81 84 87 90 90 90 90
61 69 72 74 73 72 74 74 76 77 77 77 78 79 78 73 72 71 74 75 77 77 78 79 78 76 76 76 76 76 77 77 77 77 78 80 81 81 79 78 76 75 76 75 78 81 85 87 88 89 91 92 92 94
54 57 60 70 71 72 76 77 77 80 79 78 76 74 72 72 71 70 68 67 68 71 74 77 80 81 82 82 82 81 80 80 82 82 82 80 78 77 75 76 76 78 80 84 86 87 88 90 91 94 95 94 93 86
50 50 49 48 49 50 52 53 54 55 55 55 55 54 54 53 51 52 52 53 54 55 57 59 62 64 65 68 71 73 76 77 75 74 75 78 81 81 82 81 82 86 90 90 90 90 91 92 94 94 88 80 76 69
43 45 45 47 48 49 49 49 49 48 47 46 45 45 46 45 45 44 44 45 46 48 51 54 56 57 58 62 67 68 69 71 73 76 78 79 81 84 84 86 88 91 90 91 92 92 93 93 84 76 74 69 64 59
39 42 43 43 44 45 45 45 45 42 40 40 39 38 40 41 41 40 41 45 47 48 50 52 54 58 61 65 67 70 73 75 76 76 77 80 85 90 92 92 92 91 92 94 94 96 87 77 76 72 66 60 56 51
42 41 41 43 44 45 46 46 48 48 50 52 55 58 60 63 64 63 64 65 67 68 70 70 67 63 61 61 62 63 66 67 70 74 80 86 90 91 92 94 95 96 96 98 95 82 79 77 70 64 60 55 52 50